GFSSGP_850_dewp_114.txt.gz
Dewpoint
-6 -8 -4 -4 -4 -5 -5 -9 -13 -14 -13 -12 -12 -13 -11 -11 -9 2 10 11 13 12 11 10 8 7 8 8 7 7 6 5 8 11 12 11 12 11 10 9 8 7 6 7 8 8 9 9 9
-6 -0 -5 -5 -3 -4 -7 -11 -12 -12 -12 -12 -13 -13 -12 -11 -7 -0 2 7 13 13 12 11 8 9 9 8 7 7 5 6 9 11 13 12 12 12 11 10 9 9 8 8 8 8 8 9 9
-3 -2 -5 -4 -3 -3 -6 -10 -12 -13 -13 -14 -13 -12 -11 -6 -0 1 5 11 13 13 14 12 9 9 9 8 8 7 5 6 9 11 13 12 13 13 11 10 10 10 10 10 9 9 8 9 10
-3 -5 -5 -3 -3 -6 -7 -8 -12 -12 -12 -12 -13 -12 -10 -5 -2 3 7 12 13 13 14 12 9 9 10 8 8 7 6 5 8 10 12 13 13 13 12 10 10 10 11 11 10 9 8 9 11
-4 -4 -4 -3 -4 -6 -8 -9 -10 -10 -10 -10 -11 -10 -11 -3 -2 4 7 13 13 14 14 14 9 10 10 9 8 7 7 6 8 10 12 13 13 13 12 11 11 11 11 10 10 10 8 8 9
-4 -5 -2 -2 -4 -7 -8 -8 -8 -8 -8 -9 -9 -9 -9 -4 -3 1 6 13 15 14 14 14 13 11 9 10 9 8 7 6 7 8 10 11 11 11 10 10 11 11 11 10 10 9 9 9 9
-5 -4 -2 -3 -3 -4 -6 -7 -7 -7 -7 -8 -7 -7 -6 -5 -3 -3 1 9 13 14 15 16 14 11 10 10 10 9 8 7 7 8 8 8 9 9 10 10 11 11 11 10 10 9 9 9 10
-7 -6 -4 -4 -3 -4 -7 -7 -7 -7 -7 -5 -5 -6 -5 -3 -3 -4 -3 4 11 14 15 16 14 12 11 11 10 9 9 8 8 7 7 8 9 9 10 11 11 11 11 10 9 9 9 10 10
-8 -5 -3 -4 -4 -4 -7 -7 -7 -7 -6 -5 -5 -5 -5 -4 -5 -5 -5 -2 11 13 16 16 16 12 11 11 11 10 10 9 8 8 8 9 9 9 10 11 11 11 10 10 10 10 9 10 10
-6 -3 -3 -5 -6 -6 -8 -8 -8 -8 -8 -6 -6 -6 -5 -5 -6 -6 -5 -4 6 13 14 15 16 16 12 12 11 11 11 10 10 9 9 9 9 10 11 11 11 10 10 10 11 10 10 10 10
-6 -3 -5 -5 -6 -6 -7 -8 -8 -8 -8 -9 -8 -7 -7 -7 -7 -7 -6 -4 -3 -2 14 14 15 16 16 15 14 13 11 11 10 10 10 10 10 12 13 13 13 12 11 11 10 10 10 10 11
-5 -6 -6 -6 -7 -8 -8 -9 -9 -9 -8 -8 -8 -9 -9 -8 -9 -7 -6 -6 -6 -4 11 15 15 14 16 16 16 16 13 12 11 11 10 10 11 12 13 13 13 13 11 11 11 11 11 11 11
-5 -6 -7 -8 -8 -8 -9 -11 -10 -10 -10 -11 -11 -10 -10 -8 -7 -8 -7 -7 -7 -5 -0 12 14 15 14 16 14 16 15 15 13 14 12 11 12 13 12 13 13 13 12 10 11 12 13 13 12
-5 -5 -6 -8 -9 -8 -8 -9 -8 -8 -8 -9 -10 -10 -10 -9 -8 -7 -7 -7 -7 -5 -4 -1 10 14 15 14 15 15 15 14 14 14 15 14 12 13 14 13 13 14 14 13 10 12 13 13 13
-6 -5 -6 -6 -7 -5 -6 -5 -6 -8 -8 -8 -8 -8 -8 -9 -7 -7 -7 -7 -5 -5 -5 -3 -2 4 13 13 13 14 15 14 14 14 13 14 14 13 14 13 12 12 13 14 12 12 14 13 12
-5 -4 -1 -5 -6 -6 -6 -3 -7 -8 -8 -8 -8 -9 -9 -9 -8 -8 -8 -6 -4 -1 2 2 -2 -2 8 13 13 13 13 14 13 14 13 11 10 12 13 13 13 13 12 13 13 12 12 13 13
-3 1 -0 -2 -6 -6 -6 -5 -7 -7 -8 -8 -7 -8 -9 -9 -9 -8 -5 -1 2 3 5 6 6 4 -2 9 13 13 13 13 13 13 13 13 11 13 13 10 10 10 13 12 12 13 11 12 13
-1 -3 -4 -3 -6 -7 -6 -5 -7 -8 -8 -8 -8 -8 -9 -9 -9 -1 1 4 5 5 6 7 7 7 6 3 2 9 11 11 12 13 13 13 13 12 14 13 10 12 10 12 13 14 12 13 12
-4 -3 -3 -4 -6 -5 -5 -7 -7 -8 -9 -9 -8 -9 -10 -10 -3 2 4 5 5 5 6 6 6 7 7 5 5 7 4 7 10 12 13 13 13 13 13 13 13 12 11 6 11 14 14 12 12
-4 -3 -3 -5 -7 -6 -6 -7 -9 -9 -9 -10 -9 -9 -10 -10 -0 3 3 4 4 4 4 4 4 5 5 6 7 6 6 3 5 9 11 11 13 13 13 14 14 13 12 9 7 13 13 11 12
-6 -5 -3 -5 -8 -7 -6 -6 -7 -8 -8 -9 -9 -10 -6 -4 2 2 2 2 3 3 3 4 4 4 3 4 3 5 6 5 1 4 8 11 12 12 13 13 14 14 13 12 9 10 11 9 12
-4 -5 -4 -5 -4 -1 -6 -2 -5 -8 -10 -10 -10 -2 1 2 1 1 2 2 2 2 2 3 3 3 3 2 1 2 4 5 5 6 6 8 10 9 11 12 14 13 13 13 11 11 8 9 12
-2 -4 -2 -2 -0 1 -3 -2 -5 -8 -9 -9 -3 2 2 2 2 1 1 1 1 1 2 2 2 2 2 1 2 2 2 3 2 3 4 4 7 10 9 11 12 14 13 13 12 12 11 9 9
-7 -6 -3 -1 -2 2 -2 -3 -4 -7 -6 -7 2 2 2 2 1 1 0 0 0 0 1 1 1 1 1 1 2 2 3 3 3 3 2 2 2 8 12 11 10 9 12 12 13 13 13 11 9
-5 -3 -0 5 3 2 -5 -4 -5 5 2 4 3 1 1 -0 -0 -1 -1 -1 -0 -0 -0 0 1 1 0 1 1 2 3 4 4 4 4 4 3 3 9 11 10 10 11 10 12 13 13 13 12
-4 -2 4 4 3 2 4 3 3 3 4 3 1 -0 -1 -2 -2 -1 -1 -1 -1 -1 -1 -0 -1 -1 -0 1 2 2 3 3 4 4 5 5 5 3 5 11 11 12 12 11 11 12 12 13 12
-2 -0 -1 3 3 3 1 3 6 2 2 0 -1 -1 -2 -3 -3 -3 -2 -2 -1 -1 -1 -1 -1 -1 -0 1 1 2 2 3 4 4 5 6 7 5 4 8 11 9 12 12 10 11 12 12 13
-7 -8 -0 5 7 3 -2 -3 5 5 3 1 -1 -2 -3 -4 -4 -3 -3 -2 -2 -2 -2 -2 -2 -2 -1 -0 0 1 2 2 3 4 5 6 7 7 4 4 11 11 12 12 10 11 11 11 12
-5 -6 -6 -3 -2 5 1 -0 4 5 4 3 -2 -3 -4 -4 -4 -3 -3 -2 -2 -3 -3 -3 -3 -2 -2 -1 -1 -0 1 2 3 3 5 7 7 8 6 3 9 11 12 11 11 12 11 11 11
-7 -5 -4 -0 -2 -2 -2 -2 2 3 1 -2 -3 -4 -4 -4 -4 -3 -3 -3 -3 -3 -3 -3 -3 -4 -2 -1 -1 -0 0 2 3 4 7 8 9 10 10 7 10 11 10 11 11 11 11 11 11

GFSSGP_850_dewp_117.txt.gz
Dewpoint
-10 -7 -2 -3 -3 -3 -2 -5 -9 -10 -10 -12 -13 -12 -12 -12 -4 11 8 8 8 11 11 9 6 5 5 5 5 6 6 4 5 8 11 11 12 11 10 9 8 6 6 7 8 7 7 7 6
-9 -2 -1 -3 -2 -1 -2 -6 -11 -12 -12 -14 -14 -13 -12 -3 2 4 5 11 7 12 12 11 9 6 6 7 6 6 6 4 5 8 11 12 12 12 11 10 8 8 7 7 8 8 8 9 9
-4 -3 -1 -3 -2 -1 -3 -8 -12 -13 -14 -13 -13 -12 -12 -0 -0 3 6 10 11 13 14 12 10 9 8 8 7 7 5 5 5 8 10 12 12 12 11 10 9 8 9 8 8 8 8 8 8
-3 -3 -4 -3 -1 -3 -5 -6 -13 -12 -12 -13 -13 -12 -7 -3 -1 3 3 2 12 13 15 14 12 9 9 9 7 7 5 5 5 6 9 12 12 13 12 10 9 9 9 9 9 9 8 7 8
-0 -3 -2 -2 -3 -4 -6 -7 -11 -10 -10 -10 -11 -10 -6 -2 0 1 -2 -2 13 14 15 14 11 9 9 9 8 7 5 4 5 7 9 11 12 12 11 10 9 10 10 9 9 10 9 8 9
-3 -4 -2 -1 -2 -4 -6 -7 -8 -8 -8 -8 -8 -9 -6 -2 -2 -2 -1 -0 9 13 14 14 13 10 9 9 9 8 6 5 5 7 9 11 11 11 10 9 9 10 10 10 9 9 9 8 8
-5 -4 -1 -2 -2 -4 -5 -6 -6 -6 -7 -5 -6 -6 -3 -3 -3 -3 -2 2 3 11 14 14 14 12 11 10 9 8 7 6 5 7 9 10 10 10 9 9 10 10 9 10 9 9 8 8 8
-6 -6 -4 -4 -3 -3 -6 -8 -7 -7 -6 -6 -5 -5 -4 -4 -4 -5 -4 -3 2 5 10 14 15 14 12 10 10 9 8 7 6 7 8 9 10 10 10 9 10 10 10 10 10 9 9 8 9
-9 -5 -4 -4 -4 -5 -6 -8 -8 -8 -7 -7 -6 -5 -5 -4 -5 -5 -6 -1 3 9 11 9 13 14 14 10 10 10 9 8 7 8 7 8 8 9 9 9 10 11 11 10 10 9 9 9 9
-9 -4 -5 -6 -5 -4 -5 -7 -8 -8 -8 -8 -6 -6 -6 -6 -6 -6 -6 -5 -0 5 13 12 12 13 11 11 11 10 10 9 8 8 8 7 7 8 9 9 10 10 11 10 10 10 10 9 9
-6 -5 -6 -5 -5 -5 -6 -7 -8 -8 -6 -7 -8 -8 -8 -7 -7 -8 -8 -6 -5 -5 8 14 13 13 12 11 11 11 10 10 9 8 8 8 8 8 9 10 10 10 11 10 10 10 10 9 9
-5 -6 -6 -6 -6 -6 -6 -7 -9 -9 -9 -9 -10 -10 -9 -9 -9 -9 -8 -7 -6 -6 3 11 13 15 14 13 13 13 12 11 10 10 9 9 9 8 8 9 10 10 10 11 10 10 10 10 10
-4 -4 -5 -5 -6 -6 -8 -8 -7 -8 -10 -11 -10 -10 -11 -10 -10 -8 -8 -7 -6 -7 -1 9 11 14 15 15 15 15 15 13 12 11 10 10 10 9 8 9 11 11 10 11 10 10 10 10 11
-5 -5 -5 -6 -6 -6 -6 -7 -7 -7 -8 -9 -8 -9 -10 -11 -11 -10 -8 -7 -7 -4 3 11 12 14 15 14 15 15 15 14 14 13 11 11 10 10 10 11 12 13 11 12 12 11 9 10 11
-5 -4 -5 -6 -6 -6 -6 -5 -5 -6 -7 -7 -7 -8 -8 -9 -9 -9 -8 -7 -4 -2 -2 -1 -0 6 13 13 13 13 14 14 14 14 14 12 12 11 12 12 11 11 11 12 13 13 12 11 12
-4 -4 -2 -4 -5 -5 -5 -2 -6 -6 -7 -7 -7 -8 -8 -8 -8 -8 -7 -5 -1 2 2 0 1 0 1 10 12 8 9 13 13 13 12 14 13 12 12 14 14 13 14 13 12 13 12 11 13
-2 -0 -1 -2 -4 -3 -4 -3 -6 -6 -7 -7 -8 -8 -8 -8 -8 -7 -3 -0 2 2 2 2 1 -1 1 0 9 12 12 10 12 13 13 14 14 13 12 13 14 13 13 12 12 13 13 12 11
1 -0 -2 -2 -5 -5 -5 -5 -6 -7 -7 -7 -7 -8 -8 -8 -6 -1 2 3 3 2 3 1 -0 0 0 -0 1 5 11 13 10 11 12 12 13 13 12 12 12 14 14 13 13 12 13 13 12
-2 -2 -1 -3 -5 -5 -5 -6 -7 -8 -7 -8 -7 -8 -8 -2 1 4 5 5 4 4 3 4 3 2 2 3 -1 -3 -0 4 11 9 12 12 12 12 13 13 12 11 11 13 14 12 12 13 12
-1 -1 -2 -5 -6 -6 -6 -6 -8 -8 -9 -9 -9 -9 -9 2 4 4 4 4 3 3 3 2 3 3 3 3 4 4 2 -1 2 5 8 11 11 13 12 13 13 12 11 10 12 13 12 13 13
-2 -2 -3 -4 -4 -4 -3 -3 -6 -7 -9 -9 -9 -10 -8 3 3 3 3 3 2 2 2 2 1 1 1 0 -0 -1 -1 2 2 -0 4 7 10 10 12 12 11 12 12 11 11 10 11 11 13
-2 -3 -2 -2 2 3 -2 3 -1 -3 -6 -7 -8 -0 2 2 2 2 1 1 1 1 1 1 0 1 0 -1 -1 -0 0 -0 -1 -2 0 -0 4 7 11 12 12 11 11 11 9 9 11 10 8
-2 -0 -4 -4 -0 2 0 2 -1 -5 -5 -3 2 2 2 1 1 1 0 0 0 0 0 -1 -1 -1 -1 -1 -1 -0 -0 -0 -1 -0 -1 -3 -1 1 8 10 10 11 11 11 10 10 9 10 9
-0 -1 -3 -3 0 4 1 1 0 -3 -2 5 4 2 1 0 -0 -0 -0 -0 -0 -1 -2 -2 -2 -2 -2 -2 -1 -0 0 0 0 -0 0 0 -1 -3 0 4 7 11 11 10 10 9 9 10 12
1 -1 3 4 3 2 -2 0 -2 6 5 5 3 0 -1 -1 -1 -1 -1 -1 -1 -2 -2 -3 -3 -3 -2 -2 -1 -0 0 1 2 2 2 2 1 0 -1 -1 1 5 11 12 10 10 9 8 11
1 -1 4 6 5 3 1 4 7 6 4 4 1 -2 -2 -3 -3 -2 -2 -2 -2 -3 -3 -3 -2 -2 -2 -1 -0 0 1 2 2 2 3 3 3 3 2 1 1 1 7 12 11 10 10 10 11
-1 -0 -2 3 3 4 2 5 5 4 4 3 3 2 1 -0 -0 -2 -2 -2 -2 -3 -3 -3 -3 -2 -2 -1 -0 1 1 2 2 2 3 3 3 3 4 4 4 3 2 10 12 11 10 10 10
-4 -6 3 5 6 5 1 1 7 6 5 4 2 -1 -3 -3 -3 -3 -2 -2 -3 -3 -3 -3 -3 -2 -2 -2 -0 1 1 2 2 2 3 3 3 4 5 6 7 6 4 8 11 10 6 7 10
-4 -4 -4 2 3 5 5 3 4 5 4 2 -0 -3 -3 -3 -3 -3 -3 -3 -3 -3 -3 -3 -3 -3 -3 -2 -1 0 1 1 1 2 2 3 3 4 6 7 7 7 8 5 11 10 6 7 9
-4 -2 -3 1 -1 0 1 1 4 4 3 0 -3 -3 -3 -3 -3 -3 -3 -3 -3 -3 -4 -4 -4 -4 -4 -3 -2 -2 -1 -1 -0 1 1 2 4 6 7 7 7 8 8 5 11 10 10 9 10

GFSSGP_850_dewp_123.txt.gz
Dewpoint
-11 -7 -3 -3 -4 -4 -3 -3 -7 -9 -11 -12 -12 -11 -8 -1 4 3 11 8 8 9 7 8 8 9 8 7 6 4 5 5 5 8 10 11 10 9 7 6 5 5 6 6 6 6 7 8 8
-8 -4 -2 -3 -3 -2 -4 -5 -6 -11 -12 -13 -12 -7 -2 7 8 10 6 5 5 10 10 8 8 9 8 7 7 7 6 6 5 7 9 11 11 11 9 6 6 6 6 7 6 6 6 7 6
-3 -3 -3 -4 -3 -2 -3 -6 -5 -6 -7 -13 -13 -10 -0 1 6 7 4 2 1 5 9 11 9 9 8 8 8 8 7 6 4 6 9 10 11 11 10 7 6 6 6 7 7 7 8 8 8
-3 -3 -5 -2 -1 -3 -4 -4 -5 -7 -11 -12 -13 -7 -1 2 4 3 3 -0 -4 2 10 12 11 10 9 8 8 8 7 6 4 6 9 10 11 12 11 9 6 7 7 7 7 7 8 8 9
-3 -3 -2 -2 -2 -4 -5 -5 -6 -9 -8 -8 -10 -6 3 3 5 4 -0 -3 1 3 8 13 13 12 10 8 9 8 7 6 5 6 9 10 11 12 11 10 7 7 7 8 8 8 7 7 7
-4 -4 -1 -1 -2 -4 -5 -6 -6 -6 -6 -5 -6 -3 -0 5 4 1 -2 -2 -1 2 7 12 14 14 13 10 9 9 7 6 6 7 8 10 11 12 12 10 8 7 7 7 7 8 8 7 7
-5 -4 -2 -2 -2 -4 -5 -5 -7 -7 -7 -6 -5 -2 -2 -2 -3 -4 -4 -4 -3 -2 2 10 12 13 13 12 11 10 8 7 6 7 8 9 10 12 12 11 9 8 8 7 7 8 8 7 7
-6 -6 -4 -4 -3 -3 -6 -5 -6 -6 -7 -8 -6 -3 -3 -3 -4 -4 -5 -5 -4 -3 -0 6 11 12 14 12 11 11 9 8 7 6 6 7 9 11 11 11 10 9 8 8 8 8 8 7 7
-10 -6 -4 -4 -5 -5 -5 -5 -6 -6 -7 -7 -8 -7 -6 -4 -4 -5 -5 -5 -4 -0 3 6 10 11 12 14 12 11 10 8 7 7 7 8 10 10 11 11 10 9 9 9 9 8 8 8 8
-9 -6 -5 -7 -6 -6 -6 -6 -5 -6 -6 -7 -8 -8 -9 -9 -6 -5 -5 -5 -4 -2 2 5 8 9 13 14 14 13 11 9 8 8 9 10 11 10 10 10 10 10 9 10 10 9 9 9 8
-7 -6 -7 -7 -7 -6 -5 -5 -6 -7 -6 -7 -8 -8 -8 -9 -10 -9 -7 -7 -6 -4 -0 -4 -5 2 10 14 14 14 13 10 9 8 8 9 10 10 10 11 10 10 10 10 11 11 10 9 9
-5 -6 -6 -5 -5 -5 -5 -6 -6 -6 -6 -6 -7 -7 -8 -8 -9 -10 -10 -10 -9 -8 -7 -7 -6 0 11 14 14 14 14 12 10 9 9 8 9 10 9 9 10 11 10 10 10 11 10 9 9
-4 -4 -4 -5 -5 -5 -5 -5 -5 -6 -6 -6 -6 -6 -6 -7 -7 -9 -9 -9 -9 -9 -9 -8 -6 0 6 11 13 14 14 12 11 11 10 9 9 8 8 8 8 9 11 11 11 11 11 10 10
-4 -4 -4 -4 -4 -4 -5 -5 -6 -6 -6 -6 -6 -7 -7 -6 -6 -7 -7 -9 -9 -8 -8 -8 -2 3 9 12 11 12 12 12 12 12 11 11 10 9 9 8 8 9 9 11 11 11 11 11 10
-3 -2 -4 -4 -4 -5 -5 -4 -4 -5 -5 -7 -7 -8 -7 -6 -6 -7 -6 -8 -8 -5 -7 -4 5 9 11 11 11 12 12 11 9 13 13 12 12 11 11 10 10 9 9 10 11 12 12 12 12
-2 -3 -0 -3 -5 -5 -4 -1 -4 -6 -6 -7 -7 -8 -9 -8 -7 -7 -7 -5 -1 -3 1 5 12 12 13 11 12 13 12 12 11 10 13 13 13 13 13 12 12 12 11 10 11 11 12 12 13
-1 2 -1 -2 -4 -4 -4 -2 -5 -6 -7 -7 -8 -8 -9 -9 -7 -7 -4 0 1 2 5 8 8 9 9 7 8 10 11 10 9 10 11 12 11 10 7 12 11 11 12 13 11 11 12 12 12
1 0 -1 -1 -3 -4 -3 -3 -5 -7 -7 -7 -8 -6 -6 -6 3 7 7 6 5 5 4 3 3 2 1 1 0 0 1 6 9 9 8 9 9 10 10 10 9 8 6 12 13 12 11 11 11
-1 -0 0 -2 -3 -2 -2 -3 -5 -7 -6 -5 -5 -5 2 5 6 6 5 5 5 5 4 4 3 2 0 -2 -3 -4 -4 -3 -1 1 4 5 8 7 9 11 10 9 10 11 11 11 11 11 11
-2 -1 -1 -1 -2 -2 -2 -2 -4 -5 -5 -4 -4 -3 4 5 5 4 4 3 3 2 1 1 -1 -2 -3 -4 -5 -5 -5 -5 -5 -4 -4 -2 1 2 6 8 11 11 9 9 7 12 9 11 10
-1 -0 -0 0 -3 -3 -2 -1 -3 -4 -4 -1 2 -0 4 4 3 2 1 1 1 0 -0 -1 -1 -2 -3 -4 -5 -5 -5 -5 -5 -5 -5 -5 -5 -4 -2 0 3 6 9 11 11 10 10 11 11
0 -2 -2 1 1 3 -3 4 -1 -3 2 2 2 2 2 1 1 0 0 0 -1 -2 -3 -5 -6 -6 -7 -7 -9 -10 -11 -12 -12 -11 -10 -8 -6 -5 -4 -4 -3 -0 3 6 9 11 11 10 9
1 0 1 1 1 -0 -0 2 -1 4 5 2 1 1 1 0 -0 -1 -1 -2 -4 -6 -8 -9 -8 -6 -7 -8 -10 -12 -11 -12 -13 -11 -12 -14 -12 -9 -6 -4 -3 -3 -2 -1 2 7 11 11 10
-1 0 0 -0 -1 5 1 0 1 5 5 2 0 0 -0 -0 -0 -1 -2 -4 -4 -6 -9 -10 -10 -7 -6 -6 -6 -4 -5 -7 -8 -6 -6 -7 -8 -9 -6 -4 -3 -3 -2 -1 -1 1 5 9 12
-0 1 6 5 3 3 -1 0 3 4 3 2 1 1 1 1 1 1 -2 -1 -1 -3 -6 -8 -7 -6 -4 -4 -3 -4 -3 -3 -3 -3 -3 -2 -3 -2 -4 -3 -2 -2 -2 -2 -1 -0 0 3 10
2 2 5 6 5 2 -0 1 3 4 2 2 2 2 2 2 2 2 2 1 0 -1 -2 -4 -3 -3 -3 -3 -4 -3 -3 -3 -2 -2 -1 -0 0 1 1 1 1 1 1 0 -0 -1 -0 -0 2
0 4 2 3 2 4 1 3 4 3 3 2 3 3 2 2 1 0 -0 -1 -2 -3 -3 -3 -3 -2 -3 -3 -4 -3 -3 -3 -2 -1 -1 0 0 1 2 2 3 4 4 4 3 2 1 1 1
-1 -1 2 3 6 6 2 2 3 5 4 2 3 3 2 1 -0 -1 -2 -4 -4 -4 -4 -4 -4 -4 -4 -4 -4 -4 -3 -3 -3 -2 -1 -1 0 0 1 2 3 3 4 5 5 4 4 4 3
-4 -2 -1 2 3 5 4 2 2 4 3 3 2 1 1 -1 -3 -3 -4 -4 -4 -5 -5 -5 -5 -5 -5 -5 -5 -4 -4 -4 -3 -3 -3 -2 -1 -0 1 2 3 3 4 4 5 5 5 6 6
-5 -3 -1 2 2 2 1 -0 -2 3 2 2 1 -1 -2 -3 -3 -4 -5 -4 -4 -5 -5 -5 -5 -5 -5 -5 -5 -5 -5 -4 -5 -4 -4 -2 -2 -1 0 1 2 2 3 4 4 5 5 6 6

GFSSGP_850_dewp_126.txt.gz
Dewpoint
-10 -7 -3 -3 -4 -5 -4 -4 -6 -7 -9 -12 -11 -12 -5 1 8 5 12 10 8 7 10 8 8 8 8 8 9 8 8 8 8 9 9 9 8 8 5 3 5 5 6 7 7 8 7 8 10
-7 -5 -2 -4 -3 -3 -5 -5 -6 -7 -7 -7 -10 -6 2 7 8 9 8 6 5 8 7 7 8 8 8 8 8 8 8 8 7 9 10 10 10 9 7 3 4 5 6 7 8 7 7 7 7
-4 -4 -4 -4 -3 -3 -4 -6 -6 -5 -7 -10 -13 -3 0 3 8 8 6 3 -1 2 9 9 9 10 9 9 8 9 9 8 8 8 9 10 10 10 9 5 4 5 5 6 7 6 6 6 6
-3 -3 -5 -3 -1 -3 -4 -4 -5 -6 -10 -11 -12 -6 1 2 4 6 3 -1 -3 3 9 11 10 10 10 9 9 9 9 9 8 8 9 10 11 11 10 7 4 4 5 6 7 7 7 7 7
-3 -4 -3 -2 -3 -4 -5 -5 -6 -6 -5 -5 -7 -4 2 4 3 3 0 -2 -1 2 8 12 12 11 10 10 10 9 9 9 7 8 9 10 10 11 11 9 5 4 5 6 7 7 8 8 8
-4 -4 -2 -1 -2 -4 -5 -5 -6 -6 -7 -7 -5 -3 -0 5 4 0 -2 -3 -2 -1 6 12 13 13 12 10 9 10 9 9 7 7 9 10 10 11 11 10 8 5 5 6 7 7 8 7 7
-4 -3 -2 -2 -2 -4 -5 -6 -6 -6 -6 -7 -6 -3 -2 0 -1 -3 -3 -3 -3 -1 2 8 12 13 14 13 11 11 10 9 7 7 9 10 10 11 12 11 9 7 5 5 6 7 8 8 7
-6 -6 -4 -4 -3 -3 -5 -6 -6 -6 -6 -7 -7 -5 -4 -4 -4 -4 -4 -4 -3 -3 -0 7 10 11 12 13 12 12 11 10 8 8 9 11 11 11 12 12 11 9 7 6 7 7 8 7 7
-10 -5 -3 -4 -5 -5 -6 -6 -6 -6 -6 -6 -7 -8 -8 -8 -5 -5 -5 -4 -2 -0 1 4 8 10 11 12 13 12 12 11 9 9 9 10 11 11 11 12 11 10 9 9 8 7 8 8 7
-9 -6 -4 -6 -7 -6 -6 -6 -5 -6 -6 -6 -6 -7 -8 -8 -9 -9 -8 -5 -4 -2 1 2 5 6 5 10 13 14 13 12 10 9 10 11 11 12 11 12 12 11 10 10 9 9 9 9 8
-8 -6 -7 -7 -6 -5 -5 -5 -5 -6 -5 -6 -6 -6 -6 -6 -8 -8 -9 -10 -9 -7 -5 -4 -3 -2 3 5 11 14 14 14 12 10 10 12 12 12 11 12 12 12 12 11 11 11 10 9 9
-5 -6 -6 -5 -5 -5 -5 -5 -6 -6 -5 -6 -6 -6 -6 -6 -7 -7 -7 -9 -10 -10 -9 -8 -6 -6 -5 4 11 14 14 14 14 11 10 11 11 12 12 12 12 12 12 12 11 11 11 11 10
-3 -4 -4 -4 -4 -4 -4 -5 -5 -5 -6 -6 -6 -7 -7 -8 -8 -7 -6 -8 -9 -9 -9 -9 -9 -8 -6 6 12 12 12 11 14 13 12 11 11 11 11 13 13 13 12 12 12 12 12 12 11
-3 -3 -3 -3 -3 -3 -4 -4 -6 -5 -5 -6 -7 -8 -8 -8 -9 -8 -6 -6 -8 -8 -8 -9 -9 -9 -4 10 9 10 11 12 13 13 12 12 12 11 11 12 12 12 11 10 11 11 11 12 12
-3 -2 -3 -3 -3 -4 -5 -4 -4 -5 -6 -7 -7 -8 -8 -8 -8 -8 -7 -6 -4 -4 -5 -6 -7 -7 -3 14 15 10 10 11 11 11 12 11 12 11 11 12 12 11 10 10 10 10 11 11 12
-2 -2 1 -3 -4 -5 -4 -2 -5 -5 -5 -6 -7 -7 -6 -5 -4 -3 -4 -1 5 6 7 8 9 9 11 13 13 12 12 12 11 11 10 8 6 6 7 11 12 12 11 11 12 12 11 11 11
-1 3 -0 -2 -4 -4 -4 -2 -4 -4 -6 -6 -6 -6 -5 -5 0 5 7 7 8 8 8 8 9 10 10 10 11 11 11 10 10 9 9 8 8 8 9 10 9 10 12 11 12 13 12 12 11
2 0 -1 -1 -3 -3 -2 -2 -4 -4 -6 -5 -5 -5 -3 3 5 6 6 6 5 5 5 5 5 5 5 4 4 4 5 5 5 6 7 7 8 9 9 10 10 11 10 10 9 8 10 12 12
-2 -1 0 -1 -3 -2 -2 -2 -3 -5 -5 -5 -4 -4 5 4 4 4 4 3 3 3 3 2 2 1 1 0 -0 -1 -1 -2 -2 -1 -1 -0 2 5 8 8 9 9 9 9 9 8 9 6 11
-1 -1 -1 -2 -3 -2 -2 -1 -3 -4 -2 2 3 4 3 2 2 2 1 1 1 0 -1 -1 -2 -2 -3 -3 -3 -4 -4 -4 -4 -4 -4 -4 -4 -4 -1 1 4 7 9 9 9 9 9 8 9
-1 -1 -1 -0 -2 -2 -1 0 -2 1 1 2 2 2 2 1 0 -0 -1 -2 -3 -4 -6 -6 -6 -6 -7 -7 -7 -7 -7 -6 -7 -6 -7 -6 -6 -5 -5 -4 -3 -0 5 8 10 10 10 9 8
-0 -2 -2 -1 2 4 -2 4 0 3 2 1 1 1 0 -0 -1 -2 -3 -5 -7 -7 -8 -9 -10 -9 -9 -9 -10 -9 -8 -9 -9 -10 -12 -12 -12 -11 -9 -7 -4 -3 -3 -0 4 9 10 9 9
-1 -1 1 1 2 0 0 2 1 4 3 1 0 -0 -0 -1 -2 -4 -3 -1 -1 -1 -2 -5 -7 -8 -8 -7 -9 -8 -7 -6 -6 -7 -9 -9 -8 -8 -9 -11 -6 -4 -2 -2 -2 2 7 9 8
-1 1 1 -0 0 5 3 2 0 4 3 2 1 1 1 1 2 1 1 0 -1 0 -1 -2 -3 -4 -6 -8 -9 -6 -6 -5 -5 -6 -7 -7 -6 -6 -5 -5 -7 -4 -2 -2 -1 -1 -0 2 6
0 2 5 5 4 5 -1 1 -0 4 2 1 1 1 2 2 2 2 2 3 1 0 1 0 -4 -4 -5 -5 -6 -4 -4 -4 -4 -3 -3 -4 -4 -4 -3 -1 -1 -2 -2 -0 -0 -1 -1 -0 1
1 2 5 6 5 2 0 2 0 3 2 1 1 2 2 2 2 2 2 0 -1 -3 -3 -3 -3 -4 -5 -4 -4 -4 -3 -4 -3 -3 -3 -2 -2 -2 -1 -0 -0 0 1 1 2 2 1 -1 -0
1 3 1 4 2 4 2 1 3 3 2 2 2 2 2 2 1 1 -1 -2 -5 -4 -4 -4 -4 -4 -4 -4 -4 -3 -3 -4 -3 -3 -3 -3 -2 -1 -1 0 1 2 2 3 3 3 4 3 2
-1 -1 2 2 5 5 2 1 2 4 3 3 2 2 2 2 1 -1 -3 -4 -5 -4 -4 -4 -5 -4 -5 -5 -5 -5 -5 -5 -6 -5 -5 -4 -4 -3 -2 -2 -1 1 2 3 3 3 4 4 5
-2 1 1 2 2 4 4 1 -0 3 3 3 2 3 2 1 -0 -3 -4 -5 -4 -5 -5 -5 -5 -5 -5 -5 -5 -5 -5 -5 -6 -6 -5 -5 -4 -3 -3 -3 -2 -2 -0 2 3 3 3 3 4
-4 -0 -0 4 3 3 2 1 -1 2 2 2 2 2 1 -1 -3 -4 -5 -5 -5 -5 -5 -5 -5 -5 -5 -5 -5 -5 -5 -6 -6 -7 -6 -5 -4 -4 -4 -4 -3 -3 -2 -1 -0 2 2 3 4

GFSSGP_850_dewp_132.txt.gz
Dewpoint
-8 -7 -4 -3 -3 -6 -6 -4 -6 -6 -6 -7 -6 -8 -1 4 6 8 12 12 12 13 9 8 8 9 9 8 7 7 7 6 5 4 4 4 4 2 -2 1 4 5 4 6 7 7 8 8 8
-6 -6 -3 -5 -3 -5 -4 -5 -5 -7 -7 -7 -5 -6 -1 3 7 10 10 8 9 10 11 9 8 9 10 9 8 8 8 8 7 6 6 6 6 5 3 -1 1 4 4 4 6 7 8 8 7
-4 -4 -4 -4 -4 -5 -4 -4 -6 -8 -8 -10 -10 -2 0 5 9 10 12 5 6 8 11 10 9 9 10 10 10 9 9 9 9 9 8 8 7 7 6 2 0 3 4 4 5 6 7 7 7
-2 -3 -5 -3 -3 -3 -4 -5 -6 -7 -7 -7 -7 -4 3 7 8 13 13 9 8 8 10 10 10 10 10 10 10 10 10 9 9 10 10 9 9 8 8 5 2 2 4 4 6 6 6 6 6
-4 -4 -3 -3 -3 -4 -5 -5 -6 -6 -5 -6 -6 -3 2 5 8 10 9 1 3 3 8 10 10 11 11 11 11 11 10 10 10 9 9 10 10 9 8 7 5 3 3 4 5 5 6 6 6
-4 -4 -2 -2 -3 -4 -5 -5 -6 -6 -6 -6 -6 -3 -3 0 1 2 7 1 -1 -0 1 8 11 11 11 12 11 11 11 11 11 10 9 9 10 10 9 8 7 5 4 5 6 6 7 7 7
-3 -2 -1 -2 -2 -3 -4 -5 -5 -5 -6 -5 -6 -5 -5 -5 -4 -2 7 1 -2 -1 1 5 10 12 12 12 12 12 12 12 12 11 10 9 10 10 10 9 8 8 6 6 6 7 7 8 7
-4 -3 -1 -2 -1 -2 -5 -5 -5 -5 -5 -5 -6 -5 -5 -5 -5 -4 -0 6 5 -4 -3 -0 5 11 13 13 13 12 12 12 12 12 11 10 10 10 10 10 9 9 8 7 7 7 8 8 8
-7 -1 -1 -0 -1 -3 -5 -5 -5 -5 -5 -5 -5 -5 -5 -5 -5 -4 -4 -3 1 3 -5 -4 1 6 9 12 12 13 13 13 12 12 11 10 10 11 10 10 10 10 10 9 9 8 8 8 8
-5 -2 -2 -4 -5 -5 -5 -5 -5 -5 -5 -5 -4 -4 -5 -5 -5 -5 -5 -5 -4 -3 4 5 -2 5 8 11 11 12 13 13 13 12 12 11 11 14 15 14 11 11 11 11 10 10 9 9 12
-6 -6 -5 -6 -5 -5 -5 -6 -5 -5 -5 -4 -4 -5 -5 -5 -4 -3 -4 -5 -4 -3 -2 6 12 2 6 15 14 13 14 13 13 13 14 15 15 14 14 15 13 11 11 11 11 11 11 13 13
-5 -6 -6 -6 -4 -4 -4 -5 -4 -4 -4 -5 -6 -6 -4 1 1 2 0 2 2 3 2 -8 -7 0 7 11 14 14 10 12 14 14 14 13 13 12 13 15 14 14 14 13 13 13 13 14 14
-4 -5 -4 -4 -3 -4 -4 -4 -4 -4 -5 -6 -6 -4 2 2 2 3 3 3 1 -1 -3 -7 -8 -1 5 7 8 6 8 12 12 11 12 13 13 13 13 13 13 14 13 13 13 14 13 13 13
-3 -3 -3 -3 -4 -3 -3 -4 -4 -4 -4 -5 -6 0 3 3 3 3 -3 -3 -0 1 0 0 -1 -1 -1 2 1 10 12 14 15 15 12 12 14 14 14 12 13 13 13 12 12 13 13 13 13
-2 -2 -4 -4 -4 -4 -4 -4 -4 -5 -4 -5 -5 1 3 4 3 3 3 3 3 3 4 5 5 5 6 6 10 13 13 13 14 15 13 15 14 14 14 13 13 12 12 12 12 13 12 12 11
-3 -2 -5 -4 -5 -5 -5 -7 -6 -5 -5 -5 -5 1 3 3 3 3 3 4 5 6 5 5 6 8 9 9 11 12 12 13 14 14 13 12 12 12 12 12 13 13 13 12 10 11 10 10 10
-1 -7 -2 -3 -5 -5 -6 -6 -6 -6 -5 -5 -4 2 2 3 2 2 1 3 4 4 4 5 5 6 7 9 10 10 11 11 11 11 12 12 11 11 11 11 10 12 13 12 12 12 11 11 8
-6 -3 -3 -4 -6 -6 -6 -7 -8 -5 -5 -3 -1 2 2 1 1 1 0 2 2 2 2 1 1 1 1 2 4 4 5 4 6 7 8 8 8 8 8 8 8 8 9 10 12 12 12 11 10
-2 -2 -3 -4 -5 -4 -5 -5 -5 -5 -5 -3 0 2 2 1 -0 -1 -1 -1 -2 -3 -3 -2 -3 -3 -3 -3 -3 -3 -1 0 1 -1 -1 -1 -1 -0 1 2 2 3 5 7 10 12 12 12 11
-0 -0 -3 -6 -5 -3 -4 -3 -5 -2 -1 1 2 2 2 1 0 -1 -1 -0 -2 -3 -5 -8 -9 -10 -11 -12 -12 -10 -10 -9 -7 -5 -5 -4 -4 -4 -4 -4 -4 -3 -2 -0 3 7 11 11 12
-2 -2 -4 -3 -5 -4 -2 -3 -2 0 1 2 2 2 2 2 1 -0 0 -0 -1 -1 -1 -1 -2 -3 -3 -5 -7 -10 -10 -7 -6 -12 -12 -11 -10 -9 -9 -8 -7 -6 -5 -4 -3 -1 4 9 10
-3 -5 -3 -3 -2 -1 -1 -4 -3 -1 0 1 2 2 2 1 0 -0 0 -0 -0 -2 -1 -1 -1 -1 -1 -2 -2 -4 -4 -3 -4 -5 -9 -11 -12 -12 -11 -10 -10 -10 -10 -10 -4 -0 -0 1 4
-3 -3 -2 -1 0 0 -1 0 -5 -2 -0 0 1 2 2 1 -0 1 1 2 1 0 0 -0 -3 -5 -4 -4 -4 -4 -4 -3 -3 -3 -4 -5 -7 -7 -7 -7 -8 -8 -8 -8 -7 -5 -3 2 4
-2 -1 -1 -0 -0 -0 -3 -2 -7 -1 -2 -2 0 1 1 1 1 2 2 0 -1 -3 -4 -5 -5 -5 -6 -6 -5 -4 -4 -4 -4 -3 -3 -3 -4 -3 -3 -4 -4 -4 -4 -5 -5 -3 -3 -3 -2
-1 0 -1 -1 2 -1 -1 -1 -4 -3 -2 -2 -0 0 1 2 3 3 1 -0 -2 -4 -4 -5 -5 -5 -5 -5 -5 -4 -4 -4 -4 -4 -4 -4 -3 -3 -3 -3 -3 -3 -2 -2 -2 -1 -1 -1 -1
-1 -1 0 -0 -2 -3 -2 -1 -4 -3 -2 -0 0 1 2 3 3 2 0 -1 -3 -3 -4 -5 -5 -4 -5 -5 -4 -4 -4 -5 -5 -5 -5 -5 -5 -5 -4 -4 -3 -3 -2 -2 -1 -1 -1 -0 0
0 2 -3 1 -1 1 -3 -5 1 2 1 2 1 1 2 3 2 1 -1 -2 -3 -4 -4 -5 -5 -5 -4 -4 -4 -4 -4 -5 -5 -5 -6 -6 -6 -5 -5 -5 -4 -4 -3 -2 -2 -2 -1 -1 -0
-1 -3 1 2 2 0 -5 -5 -3 2 2 2 2 2 2 3 2 0 -2 -3 -4 -4 -4 -5 -5 -4 -4 -4 -4 -5 -5 -5 -5 -6 -6 -5 -5 -5 -5 -5 -5 -5 -5 -5 -4 -2 -2 -1 -1
-1 0 1 0 0 2 1 -3 -3 -4 -3 0 0 1 2 2 1 -1 -2 -4 -4 -4 -4 -5 -4 -4 -4 -4 -4 -5 -5 -5 -5 -5 -5 -6 -6 -6 -6 -7 -7 -6 -6 -6 -5 -4 -3 -2 -2
-2 -1 -1 4 2 4 4 0 -3 -2 -2 -2 -1 1 1 2 -1 -2 -3 -4 -4 -4 -4 -4 -4 -4 -4 -4 -4 -4 -5 -5 -5 -5 -6 -6 -6 -7 -7 -7 -7 -7 -7 -7 -7 -6 -5 -5 -4

GFSSGP_850_dewp_138.txt.gz
Dewpoint
-6 -1 -2 -2 -1 -2 -3 -6 -8 -8 -8 -8 -6 -6 5 8 10 14 12 14 14 14 9 9 9 9 8 7 7 7 7 6 7 6 3 3 5 5 6 6 6 5 6 8 8 8 8 8 9
-6 -1 -3 -2 -1 -2 -4 -7 -6 -8 -9 -9 -8 -9 5 9 11 12 11 13 14 15 12 9 9 9 9 8 7 7 7 6 6 6 4 5 5 5 6 6 6 6 6 7 7 8 8 8 8
-4 -2 -3 -2 -2 -2 -3 -6 -7 -9 -11 -12 -10 -1 6 8 11 11 10 12 13 15 14 11 9 9 10 10 9 8 8 7 7 7 6 6 7 6 6 5 6 7 7 6 7 7 7 8 8
-5 -4 -3 -3 -4 -4 -5 -5 -7 -9 -9 -10 -9 4 6 8 9 9 9 11 13 14 15 12 9 9 10 10 10 10 9 9 9 9 8 8 8 8 7 6 6 7 7 5 6 7 7 8 8
-4 -4 -2 -2 -3 -5 -6 -7 -7 -7 -6 -8 -8 3 2 2 3 6 9 10 12 14 9 10 10 10 10 11 11 11 11 10 9 9 10 9 9 9 9 8 7 6 5 5 6 7 7 7 7
-3 -4 -2 -2 -4 -5 -7 -6 -7 -7 -7 -7 -4 -1 -1 -2 -1 2 7 9 11 13 14 6 9 10 11 11 11 11 11 11 11 10 10 10 10 10 11 10 9 8 6 5 5 7 7 7 7
-3 -2 -1 -2 -4 -4 -5 -5 -6 -6 -7 -5 -6 -4 -4 -3 -3 -2 3 6 8 10 11 14 6 9 12 12 12 12 12 12 12 11 11 11 10 10 11 11 10 9 7 6 5 6 6 7 6
-5 -4 -3 -4 -4 -2 -4 -5 -6 -6 -5 -5 -6 -5 -3 -3 -4 -3 -2 2 5 6 9 11 15 14 11 12 13 13 13 12 12 12 12 12 11 10 10 11 11 11 9 8 7 6 5 5 6
-9 -7 -6 -6 -3 -2 -5 -5 -5 -5 -5 -5 -5 -3 -3 -4 -3 -3 -3 -3 -2 1 9 11 14 15 15 15 13 13 13 13 13 13 12 12 12 12 11 10 10 10 10 9 9 8 6 5 7
-10 -9 -8 -4 -5 -3 -4 -4 -4 -4 -5 -5 -5 -3 -4 -2 -0 0 -1 0 1 1 2 5 12 14 15 14 14 12 7 9 10 13 14 14 13 13 12 13 12 11 10 10 10 10 8 7 7
-10 -9 -11 -7 -4 -6 -8 -8 -9 -8 -5 -4 -3 -4 -3 0 1 1 3 5 7 6 1 1 8 14 14 14 14 15 15 15 15 14 14 15 15 15 15 14 14 14 14 12 10 10 10 9 8
-9 -11 -12 -10 -7 -8 -10 -10 -9 -8 -8 -5 -5 -3 -1 -0 1 2 3 4 5 4 -3 -2 -1 6 13 14 14 12 13 14 14 13 14 14 14 14 14 13 13 14 14 13 13 11 10 10 9
-8 -10 -12 -8 -9 -8 -8 -8 -7 -8 -7 -6 -4 -0 1 1 1 2 3 4 4 3 -1 -1 -2 -1 -1 7 12 13 13 13 12 12 13 14 15 13 11 12 13 12 13 14 13 13 13 13 11
-10 -9 -6 -8 -8 -7 -7 -8 -7 -7 -6 -5 -6 -0 2 1 1 2 3 3 3 3 -1 2 2 3 5 5 8 11 13 13 13 13 13 13 13 13 14 13 11 12 13 13 13 13 13 14 14
-8 -5 -8 -9 -10 -9 -7 -5 -6 -8 -5 -5 -6 -2 2 2 1 2 2 2 3 3 3 3 4 5 7 8 9 9 10 12 12 12 12 12 12 13 13 13 12 13 13 12 12 13 14 13 9
-4 -6 -5 -9 -10 -6 -6 -7 -12 -8 -5 -6 -6 -1 1 2 2 2 2 2 2 2 3 3 3 3 4 8 8 8 8 8 9 10 10 11 11 12 11 11 12 12 12 11 11 13 12 11 9
-5 -3 -5 -7 -8 -7 -6 -5 -8 -6 -6 -6 -7 -5 1 2 2 2 2 2 1 2 2 2 1 1 1 2 6 5 5 5 5 6 8 7 7 8 7 8 9 10 9 10 10 11 11 12 12
-6 -6 -5 -5 -5 -6 -6 -6 -9 -10 -9 -8 -9 -7 1 1 1 2 2 2 2 2 1 1 -1 -4 -2 -2 -0 1 -0 2 2 2 0 -1 -2 -2 -2 -2 0 1 3 5 7 6 6 11 12
-6 -5 -4 -6 -10 -9 -7 -7 -7 -8 -8 -10 -8 -7 -0 1 1 1 2 2 2 2 1 1 0 -1 -2 -2 -3 -2 -1 -1 0 -0 -1 -4 -6 -7 -7 -7 -6 -5 -3 -1 3 3 3 6 5
-3 -2 -5 -8 -8 -7 -7 -6 -8 -8 -8 -9 -8 -3 1 1 0 1 2 2 2 1 1 0 -1 -2 -2 -2 -1 -2 -1 -1 -0 -2 -1 -4 -4 -7 -9 -9 -9 -8 -8 -6 -2 2 2 1 7
-2 -3 -4 -5 -7 -7 -6 -5 -7 -9 -8 -6 -2 -3 1 1 0 1 2 2 2 2 1 0 -1 -6 -10 -7 -7 -6 -2 -1 -2 -2 -1 -2 -1 -3 -2 -1 -3 -7 -8 -8 -7 -2 2 -0 1
-3 -8 -9 -5 -4 -2 -7 -3 -6 -7 -4 -2 -2 -2 0 0 1 1 2 2 2 2 -0 -1 -5 -9 -11 -11 -11 -10 -8 -6 -3 -2 -3 -3 -2 -2 -2 -1 -2 -3 -4 -6 -6 -5 -4 -1 -2
-5 -7 -4 -4 -4 -5 -6 -5 -6 -8 -7 -1 -2 -0 0 1 1 1 2 2 0 -0 -1 -1 -3 -7 -10 -9 -9 -8 -7 -5 -4 -3 -4 -4 -3 -2 -2 -2 -3 -4 -5 -4 -5 -5 -3 -2 -2
-7 -5 -5 -4 -3 1 -3 -3 -4 -6 -5 -2 -2 -1 0 1 1 2 2 1 -1 -0 -1 -1 -2 -6 -7 -7 -7 -6 -5 -5 -4 -4 -4 -4 -3 -3 -3 -3 -3 -3 -3 -3 -3 -3 -2 -2 -1
-6 -4 -2 -2 -0 2 -5 -4 -4 -6 -6 -4 -2 -1 0 1 1 2 2 0 -1 -1 -1 -2 -2 -6 -6 -6 -6 -5 -5 -5 -4 -4 -4 -4 -4 -4 -4 -4 -4 -4 -4 -4 -3 -3 -3 -2 -2
-4 -3 2 2 2 -2 -6 -3 -4 -7 -6 -5 -3 -2 -0 1 2 3 2 1 -1 -1 -1 -2 -3 -5 -5 -5 -5 -5 -5 -5 -4 -4 -4 -5 -4 -5 -5 -6 -5 -5 -5 -5 -5 -5 -4 -4 -3
-7 -5 -8 -1 -2 0 -3 -6 -8 -6 -5 -3 -4 -3 -0 1 3 3 2 0 -1 -1 -1 -2 -2 -4 -4 -4 -3 -4 -4 -5 -4 -4 -5 -5 -5 -6 -6 -6 -6 -6 -5 -6 -6 -6 -5 -5 -5
-6 -7 -1 1 4 3 -2 -4 -3 2 1 -1 -1 -2 -1 1 3 2 1 -0 -1 -1 -1 -2 -3 -4 -4 -3 -3 -3 -4 -5 -5 -4 -4 -5 -5 -6 -6 -6 -6 -6 -6 -6 -6 -6 -6 -6 -6
-7 -4 -4 -3 -1 2 1 -2 1 2 0 1 2 4 4 2 3 2 0 -1 -2 -2 -1 -2 -3 -4 -4 -3 -4 -5 -6 -6 -6 -5 -5 -5 -5 -6 -6 -6 -6 -7 -6 -6 -7 -7 -7 -7 -7
-8 -4 -3 4 3 5 5 5 -1 1 0 1 1 2 2 4 4 2 -0 -1 -2 -2 -2 -2 -2 -4 -5 -5 -4 -7 -9 -12 -15 -12 -8 -6 -6 -6 -6 -6 -6 -6 -6 -6 -7 -7 -8 -8 -8

GFSSGP_850_dewp_141.txt.gz
Dewpoint
-4 -3 -2 -1 -0 -1 -0 -2 -8 -6 -6 -7 -6 11 12 12 13 15 14 14 13 9 9 9 8 7 6 5 5 5 5 4 4 4 1 1 2 1 2 4 5 5 6 7 7 7 7 7 8
-4 -3 -3 -3 1 2 -1 -6 -8 -9 -9 -8 -1 10 11 13 11 12 13 14 15 14 10 10 9 8 7 7 6 6 6 5 5 5 3 3 3 4 3 4 5 6 6 7 7 7 7 7 8
-5 -4 -2 -1 0 0 -2 -5 -8 -10 -11 -10 3 7 8 11 10 11 13 15 16 15 11 10 9 8 9 8 8 7 7 6 6 6 5 5 5 5 5 5 5 6 6 6 7 7 7 7 8
-2 -4 -2 -1 -1 -4 -4 -6 -7 -9 -9 -2 5 8 8 8 9 10 11 13 14 15 13 10 9 9 9 9 9 9 8 8 8 8 7 7 7 7 6 6 5 5 5 6 6 7 8 7 8
-2 -4 -1 0 -1 -4 -6 -7 -7 -5 -6 -1 4 1 -1 4 8 8 11 13 13 11 9 9 9 9 10 10 10 10 10 10 9 9 9 9 9 9 8 8 7 6 4 3 4 6 7 7 8
-2 -3 -1 0 -2 -5 -5 -7 -7 -7 -7 -3 -0 -2 -2 -1 1 7 8 11 12 13 12 4 8 10 11 11 11 11 11 11 11 10 10 10 10 10 10 10 9 8 7 5 4 4 5 7 7
-2 -1 1 -1 -2 -3 -4 -6 -5 -4 -4 -5 -5 -1 -3 -3 -2 3 3 5 6 9 8 12 11 8 9 11 11 12 12 12 12 12 11 11 10 10 10 11 11 10 9 8 6 5 6 7 6
-7 -4 -3 -3 -3 -2 -5 -6 -6 -5 -4 -6 -5 -2 -3 -3 -3 -1 4 7 8 11 12 14 15 15 17 13 13 13 13 13 12 12 12 12 12 11 10 10 11 11 10 10 9 7 6 6 7
-8 -7 -5 -5 -1 -2 -5 -5 -5 -5 -5 -5 -3 -4 -4 -3 -2 -2 -1 4 7 11 12 13 13 14 12 10 16 14 12 10 12 13 13 12 12 12 12 11 11 10 11 11 10 9 8 6 6
-9 -7 -7 -5 -5 -5 -5 -4 -4 -4 -5 -4 -4 -4 -1 -0 0 -0 2 4 2 2 5 12 13 12 14 15 15 17 14 13 11 12 15 15 14 14 14 13 12 13 12 11 11 10 9 10 8
-9 -7 -9 -5 -5 -7 -8 -9 -10 -7 -5 -3 -3 -1 0 1 1 2 3 3 3 3 3 1 5 13 14 14 15 15 14 10 4 12 13 14 13 14 15 15 14 14 13 13 13 11 11 10 10
-9 -9 -9 -9 -7 -8 -7 -8 -8 -7 -5 -5 -3 -1 0 1 2 3 3 3 -1 -4 -6 -6 -6 -2 9 14 14 15 14 14 13 12 12 14 14 15 15 14 12 12 13 14 13 13 13 12 11
-8 -8 -9 -9 -9 -8 -8 -7 -7 -7 -5 -6 -4 -1 0 2 2 3 3 3 3 -1 -3 -5 -3 -1 -0 1 8 12 13 13 13 13 13 12 11 13 13 12 12 13 12 12 12 12 12 13 13
-8 -8 -7 -7 -6 -8 -7 -7 -7 -8 -7 -4 -3 1 1 1 2 2 2 2 2 0 -1 -0 1 2 5 6 6 9 10 11 11 12 12 10 12 12 11 12 12 13 13 12 13 13 12 11 12
-4 -3 -6 -6 -8 -8 -10 -6 -5 -7 -6 -5 0 2 1 1 2 1 2 2 3 2 2 3 3 4 6 8 7 8 8 9 9 10 10 10 10 10 10 11 11 11 11 11 12 12 12 12 11
-4 -3 -3 -6 -8 -8 -6 -3 -7 -8 -5 -5 -0 2 1 2 2 1 2 2 1 2 2 2 2 3 5 7 6 5 6 6 6 7 7 8 8 9 9 10 10 10 10 10 10 10 10 11 12
-3 -2 -3 -4 -7 -5 -6 -4 -6 -6 -5 -5 -1 2 2 2 2 1 1 1 1 1 2 1 -1 0 1 5 5 4 3 3 2 2 1 1 1 -0 -0 1 2 5 5 6 9 9 8 9 11
-2 -2 -3 -4 -6 -5 -5 -5 -7 -6 -6 -6 -6 2 2 2 2 2 1 1 1 2 1 1 -0 -1 -2 -2 -1 -2 -0 0 -0 -1 -3 -4 -6 -8 -8 -7 -6 -5 -4 -2 -1 0 1 4 7
-3 -4 -3 -5 -6 -6 -4 -5 -6 -8 -7 -7 -7 1 1 1 1 2 2 2 2 1 1 0 -0 -1 -1 -1 -1 -2 -1 -0 -0 -1 -3 -3 -3 -4 -5 -7 -10 -11 -10 -8 -5 -4 -3 -1 2
-4 -2 -1 -4 -7 -7 -7 -5 -7 -8 -8 -8 -8 1 1 1 1 2 2 2 1 1 0 -0 -1 -5 -8 -7 -6 -3 -1 -1 -0 -1 -3 -3 -3 -4 -3 -3 -4 -4 -5 -8 -9 -8 -9 -5 2
-4 -1 -1 -2 -5 -7 -6 -6 -6 -7 -8 -8 -2 0 1 0 1 2 2 1 1 1 0 -1 -5 -12 -13 -13 -13 -11 -8 -7 -10 -9 -7 -6 -5 -6 -5 -5 -4 -3 -3 -3 -4 -5 -7 -9 -7
-3 -5 -4 -4 -3 -1 -6 -2 -6 -8 -6 -2 -0 1 0 0 1 2 2 2 2 1 -3 -7 -10 -11 -12 -12 -12 -12 -12 -10 -9 -7 -5 -5 -5 -5 -4 -4 -4 -4 -5 -5 -5 -4 -3 -4 -7
-4 -4 -4 -4 -2 -3 -4 -4 -6 -7 -7 -1 -1 1 0 0 1 2 2 2 2 0 -3 -5 -8 -10 -11 -11 -11 -11 -9 -8 -7 -6 -5 -5 -4 -4 -4 -4 -4 -4 -3 -3 -3 -3 -2 -2 -2
-7 -5 -5 -4 -3 1 -3 -4 -4 -5 -6 -2 0 0 1 1 1 2 2 2 1 -1 -3 -5 -7 -9 -9 -10 -9 -9 -9 -8 -7 -6 -5 -5 -4 -4 -4 -4 -4 -4 -4 -4 -4 -4 -4 -3 -3
-6 -4 -0 -0 2 3 -2 -1 -2 -5 -2 -0 0 0 1 1 1 2 2 0 -0 -1 -2 -3 -6 -8 -8 -8 -8 -8 -7 -6 -6 -5 -4 -4 -5 -5 -5 -5 -5 -5 -5 -5 -5 -5 -5 -5 -4
-3 -3 2 3 2 1 -3 -1 -4 -4 -4 -2 -1 0 1 1 2 2 2 -0 -1 -1 -2 -3 -5 -6 -7 -7 -7 -7 -6 -6 -5 -5 -4 -5 -5 -5 -6 -6 -6 -6 -6 -6 -6 -6 -6 -6 -6
-5 -1 -3 1 1 3 0 -3 -5 1 1 0 0 1 1 1 2 2 2 -0 -1 -1 -1 -2 -3 -4 -5 -6 -6 -6 -6 -5 -5 -5 -4 -4 -5 -5 -6 -6 -6 -6 -6 -6 -7 -6 -6 -7 -7
-6 -5 0 2 4 5 1 -1 -1 3 3 3 4 4 4 4 3 2 1 -0 -1 -1 -2 -3 -3 -4 -4 -4 -5 -6 -8 -9 -8 -6 -5 -5 -5 -5 -6 -6 -6 -6 -6 -6 -6 -6 -7 -7 -7
-3 -2 -2 -1 2 4 3 -0 2 2 3 3 2 2 5 5 4 3 1 -1 -1 -1 -2 -3 -3 -3 -3 -4 -6 -9 -14 -18 -19 -16 -12 -10 -8 -7 -7 -7 -7 -7 -6 -6 -6 -7 -7 -8 -8
-3 -5 -3 4 4 4 4 4 -2 1 2 1 1 0 -1 0 4 4 1 0 -1 -2 -2 -2 -2 -3 -4 -4 -6 -11 -17 -21 -22 -20 -18 -18 -20 -15 -15 -19 -21 -21 -15 -9 -7 -7 -7 -8 -8

GFSSGP_850_dewp_147.txt.gz
Dewpoint
-4 -4 -3 -1 -1 -2 -0 -4 -8 -6 11 12 12 12 12 12 12 14 15 14 10 9 8 7 6 5 5 5 5 5 4 4 4 2 1 1 0 -2 -1 2 4 6 7 8 8 7 8 8 9
-2 -4 -3 -2 -1 -2 -3 -4 -8 0 11 11 11 11 12 12 14 15 14 13 12 9 8 7 6 6 6 6 6 6 6 5 5 4 2 3 3 3 0 0 2 4 5 7 8 7 8 8 8
-2 -4 -3 -1 -1 -0 -2 -5 -10 3 10 7 8 9 10 11 15 15 15 13 11 10 10 9 8 7 7 7 7 7 6 6 6 6 5 4 4 5 5 4 2 2 4 5 6 7 7 7 7
-3 -3 -2 -2 -1 -2 -3 -6 -2 7 7 8 8 6 12 14 14 16 15 14 13 13 12 11 10 10 9 8 8 7 7 7 6 6 6 7 6 6 6 6 6 5 4 3 4 5 6 7 7
-3 -4 -2 -0 -1 -2 -4 -6 -6 2 4 5 7 9 13 14 16 15 13 12 9 11 12 12 11 11 11 10 9 9 9 9 8 8 8 8 8 8 8 8 7 7 7 6 5 4 5 6 7
-3 -3 -1 1 -0 -2 -4 -6 -2 2 1 2 6 6 7 16 14 14 13 11 10 8 11 11 11 11 11 11 11 11 11 11 11 10 10 10 10 10 10 10 9 9 9 9 9 8 6 5 5
-4 -2 -0 -0 -2 -3 -4 -5 -3 -0 -0 -1 1 -1 2 14 14 13 12 11 10 9 10 11 11 12 11 11 12 12 12 12 12 12 12 12 11 10 10 11 11 11 11 11 10 10 10 9 7
-7 -4 -3 -4 -4 -2 -4 -5 -1 -3 -3 -2 -2 -2 0 12 15 12 10 9 11 12 12 12 13 12 13 14 13 13 13 13 13 13 13 12 12 12 12 12 11 11 12 12 12 12 12 11 11
-8 -7 -5 -6 -3 -3 -7 -5 -4 -4 -3 -3 -3 -3 1 11 12 9 9 11 11 12 13 13 13 13 13 12 13 14 13 13 13 13 13 13 13 13 13 13 12 12 12 12 11 12 12 12 12
-9 -7 -7 -9 -5 -6 -8 -6 -7 -4 -2 1 2 4 9 11 11 9 9 9 11 10 10 11 12 13 14 14 13 14 14 13 14 13 14 15 14 14 14 14 14 14 13 13 12 12 12 11 12
-9 -7 -9 -9 -5 -7 -8 -9 -8 -3 -2 0 3 5 7 7 8 8 8 6 5 2 -1 -2 -2 -1 6 12 14 15 14 13 14 14 13 11 14 13 14 14 13 14 14 14 13 11 11 11 11
-6 -8 -9 -9 -6 -8 -9 -9 -9 -6 -4 -1 1 2 2 2 1 1 1 1 0 -2 -5 -7 -7 -7 -6 -4 1 12 14 12 11 13 13 13 13 13 13 13 13 12 12 13 13 12 11 11 10
-7 -6 -6 -8 -8 -8 -8 -9 -9 -6 -5 -1 1 2 2 0 0 1 1 -0 -2 -4 -7 -7 -7 -6 -5 -1 2 4 10 12 10 12 12 12 12 12 12 11 11 9 8 9 10 11 11 11 10
-6 -4 -4 -6 -7 -7 -7 -8 -7 -6 -2 1 1 1 -0 -1 -0 -0 -0 -2 -3 -5 -6 -7 -7 -6 -4 -1 2 5 6 7 9 10 10 10 10 10 9 9 8 9 9 8 7 9 9 9 9
-5 -4 -5 -5 -7 -7 -7 -6 -6 -6 -0 1 2 1 1 1 1 0 0 -2 -4 -4 -6 -5 -3 -1 0 2 3 4 5 5 6 6 6 6 6 6 6 7 7 7 8 8 9 9 9 10 10
-4 -5 -3 -7 -7 -8 -7 -5 -8 -5 0 2 2 2 2 2 2 1 -0 -2 -3 -4 -2 -0 1 2 3 4 4 4 4 3 3 1 -0 -1 -2 -3 -4 -4 -3 -1 -0 1 3 5 7 8 9
-3 -9 -3 -5 -7 -7 -8 -7 -9 -8 0 2 2 2 2 2 2 1 -0 -2 -3 -3 -3 -1 -0 1 2 3 3 2 1 -1 -1 -1 -1 -2 -2 -3 -3 -3 -3 -5 -7 -8 -7 -4 -3 -2 1
-5 -2 -3 -3 -6 -6 -5 -6 -7 -5 -1 1 2 2 2 2 1 1 0 -1 -2 -2 -1 -1 -1 -1 -0 0 -0 -1 -1 -1 -2 -8 -14 -16 -17 -17 -17 -16 -15 -12 -8 -5 -4 -7 -9 -8 -6
-3 -2 -2 -4 -6 -6 -5 -5 -6 -7 -4 2 2 2 2 2 2 1 1 0 0 0 0 -0 -0 -0 -1 -1 -1 -1 -2 -9 -13 -14 -14 -14 -15 -15 -15 -15 -15 -15 -15 -15 -14 -12 -4 -5 -10
-1 -1 -1 -3 -4 -5 -4 -6 -7 -7 -6 -4 2 2 2 2 1 1 1 1 1 0 -0 -1 -2 -2 -2 -2 -3 -7 -10 -12 -12 -12 -12 -12 -12 -12 -11 -10 -9 -9 -9 -9 -10 -11 -13 -10 -4
-1 -1 -2 -2 -4 -6 -6 -5 -6 -7 -8 -8 -0 1 2 2 1 1 2 1 1 0 -0 -2 -9 -13 -13 -12 -12 -12 -11 -11 -10 -11 -10 -11 -10 -8 -7 -6 -6 -5 -6 -5 -5 -6 -7 -8 -7
1 -3 -3 -2 -4 -1 -5 -1 -6 -7 -7 -8 -4 2 2 2 2 2 2 2 1 0 -1 -6 -11 -11 -11 -11 -11 -11 -10 -10 -10 -9 -8 -7 -7 -6 -5 -5 -6 -6 -6 -5 -5 -5 -4 -5 -5
-1 -4 -3 -3 -3 -3 -3 -2 -4 -7 -7 -8 -4 1 2 2 2 2 2 2 1 0 -3 -8 -10 -10 -10 -10 -9 -10 -9 -9 -8 -8 -7 -6 -5 -5 -6 -6 -6 -6 -6 -6 -6 -6 -5 -4 -4
-5 -5 -4 -3 -3 -0 -3 -2 -4 -6 -7 -5 0 1 2 2 2 2 2 2 1 -1 -3 -7 -9 -10 -9 -8 -8 -8 -8 -7 -7 -7 -6 -5 -5 -5 -5 -6 -5 -6 -6 -6 -6 -6 -5 -5 -5
-5 -4 0 -0 1 0 -3 -2 -4 -1 3 1 -1 1 2 3 2 2 2 2 1 -1 -2 -5 -6 -8 -8 -7 -8 -7 -7 -7 -7 -7 -6 -5 -5 -5 -5 -6 -5 -5 -5 -6 -6 -6 -6 -6 -6
-4 -3 1 2 1 -2 -2 -1 -2 4 3 2 1 1 2 2 2 2 2 2 1 -0 -2 -3 -5 -6 -6 -6 -7 -7 -6 -7 -7 -7 -7 -7 -6 -6 -7 -7 -6 -6 -6 -6 -6 -6 -6 -7 -7
-4 -2 -4 -1 1 2 0 -1 -0 3 4 3 2 2 2 2 2 2 2 2 1 0 -0 1 -0 -3 -6 -6 -6 -6 -6 -8 -10 -12 -12 -13 -13 -11 -11 -12 -13 -11 -11 -9 -8 -7 -7 -6 -7
-5 -4 0 1 2 3 1 0 0 4 5 4 3 3 2 2 2 1 2 1 0 0 2 1 -1 -3 -5 -5 -5 -5 -8 -11 -15 -17 -19 -19 -20 -18 -20 -25 -29 -22 -20 -18 -18 -16 -12 -8 -7
-3 -2 -1 -0 1 1 2 -0 -3 2 4 5 3 3 2 1 1 2 2 1 0 0 1 0 -1 -3 -4 -4 -5 -5 -8 -13 -17 -21 -23 -25 -27 -29 -30 -32 -31 -31 -29 -29 -32 -26 -23 -16 -11
-2 -1 1 3 3 3 4 3 -1 0 1 1 4 3 2 1 1 2 2 1 -0 -0 0 -0 -1 -2 -3 -4 -4 -6 -9 -14 -19 -20 -22 -24 -27 -30 -32 -33 -32 -31 -33 -33 -33 -33 -33 -31 -21

GFSSGP_850_dewp_153.txt.gz
Dewpoint
-2 -3 -3 -2 -1 -2 -1 -3 -5 6 7 10 10 11 11 13 12 13 14 11 10 10 9 9 7 9 9 7 7 7 7 7 4 2 2 0 0 2 3 5 6 7 7 7 7 7 7 7 7
-2 -3 -4 -2 -0 -2 -2 -4 -5 4 12 12 12 12 12 13 15 15 14 12 11 11 10 9 8 9 8 6 8 8 7 8 8 5 4 4 4 2 2 3 4 5 6 7 7 8 7 7 7
-3 -3 -3 -1 -1 -2 -4 -6 -2 10 10 8 9 10 11 14 15 14 14 13 11 10 9 8 7 7 9 7 8 9 8 9 10 9 8 6 6 6 6 5 5 5 6 6 6 7 7 7 7
-4 -3 -3 -1 -0 -2 -2 -4 7 11 9 8 9 11 15 15 16 13 14 12 11 10 9 8 8 8 9 8 8 9 9 9 10 10 10 10 9 9 8 8 8 8 8 7 6 6 6 7 7
-4 -4 -1 0 -0 -2 -3 -4 10 9 7 8 9 14 14 16 14 12 12 11 11 10 9 9 8 8 8 8 9 9 8 8 9 9 9 10 11 11 11 10 10 10 10 10 9 8 8 7 7
-3 -3 -1 -1 -1 -2 -4 -2 8 6 4 7 13 12 14 16 14 13 12 12 11 11 11 11 10 10 10 9 9 9 9 9 9 10 10 10 10 10 11 12 12 11 11 11 10 10 10 10 10
-3 -2 -1 -0 -1 -3 -4 -4 6 4 5 8 10 7 14 16 16 14 14 13 12 12 13 12 11 10 10 10 10 11 11 11 11 11 11 11 11 11 11 11 11 12 12 12 12 12 11 11 10
-5 -3 -0 -2 -2 -3 -5 -4 -0 3 1 9 7 11 14 15 15 14 13 10 9 10 11 11 11 11 11 11 11 11 11 11 12 12 12 12 12 12 12 12 12 12 11 11 12 12 12 12 12
-8 -5 -3 -4 -4 -3 -7 -1 -2 -2 1 -1 3 7 11 15 15 15 13 12 11 9 8 8 8 9 8 8 9 9 10 11 11 12 12 12 12 12 13 13 13 13 13 13 13 12 12 11 11
-8 -5 -5 -7 -7 -4 -8 -3 -3 -2 1 4 3 1 13 16 15 15 13 11 9 9 8 8 9 9 8 8 8 8 9 9 12 12 12 13 13 13 12 12 12 12 12 13 13 12 12 11 11
-8 -6 -8 -9 -9 -7 -8 -8 -6 -2 0 3 4 6 15 15 15 14 12 10 9 8 8 7 5 1 -2 -4 -0 5 7 12 13 13 12 12 11 12 12 12 12 12 12 12 12 11 10 9 10
-5 -7 -8 -9 -7 -7 -7 -8 -4 -2 -2 -2 0 3 12 14 14 12 10 8 8 7 3 -2 -4 -7 -7 -7 -5 -2 1 4 10 11 11 11 11 10 10 10 11 11 11 11 11 10 9 7 4
-6 -7 -5 -5 -5 -7 -8 -8 -8 -4 -6 -5 -1 5 12 13 12 10 7 6 4 0 -3 -6 -6 -6 -7 -7 -5 -2 1 3 4 7 9 9 8 8 8 8 8 8 8 8 7 6 5 5 3
-5 -5 -5 -6 -5 -6 -7 -8 -8 -8 -6 -2 1 6 11 12 11 8 6 4 1 -2 -5 -5 -5 -5 -4 -2 -1 -1 1 2 3 3 3 3 4 4 4 3 3 3 3 3 4 4 5 5 6
-4 -4 -5 -6 -6 -6 -7 -6 -6 -8 -3 1 5 8 10 10 9 7 4 1 -1 -4 -4 -3 -3 -2 0 -0 -1 1 2 2 2 1 0 -0 -0 -0 -1 -2 -2 -3 -2 -2 -2 -2 -2 -1 1
-6 -6 -7 -9 -6 -7 -7 -5 -8 -7 -1 3 5 6 7 7 6 3 1 0 -2 -3 -3 -2 -1 -1 0 0 -1 -1 0 -0 -0 -0 -2 -6 -11 -15 -15 -16 -16 -16 -16 -16 -16 -13 -7 -4 -3
-7 -14 -7 -8 -7 -8 -6 -6 -8 -7 1 2 4 4 5 4 3 2 1 0 -1 -2 -2 -2 -1 0 1 1 0 -1 -1 -1 -3 -11 -15 -15 -15 -15 -15 -16 -16 -16 -16 -15 -15 -15 -16 -17 -16
-8 -6 -7 -7 -7 -5 -5 -5 -7 -5 -0 1 3 4 4 3 3 2 2 0 -1 -1 -0 -0 -0 1 1 1 -1 -1 -1 -5 -14 -14 -14 -14 -13 -13 -13 -13 -14 -14 -15 -14 -13 -12 -11 -12 -13
-11 -6 -6 -5 -6 -3 -3 -4 -5 -6 -1 1 2 3 3 3 3 3 2 1 0 -0 -0 -0 0 0 0 -1 -1 -2 -6 -13 -13 -13 -12 -11 -11 -11 -11 -12 -12 -13 -12 -12 -12 -10 -9 -9 -9
-3 -3 -3 -3 -4 -3 -3 -3 -5 -6 -5 -1 1 2 3 3 3 2 2 1 -0 -1 -1 -1 -1 -1 -1 -1 -2 -4 -12 -13 -12 -11 -10 -10 -10 -9 -10 -11 -10 -9 -8 -8 -8 -8 -8 -7 -6
-2 -3 -3 -5 -4 -4 -4 -4 -4 -6 -6 -5 -1 -1 1 2 2 2 2 1 0 -0 -0 -0 -1 -1 -1 -1 -3 -6 -12 -12 -11 -9 -9 -9 -8 -9 -10 -10 -8 -7 -7 -7 -7 -7 -7 -7 -6
-2 -3 -3 -3 -2 -1 -5 -3 -5 -5 -6 -6 -3 1 2 3 3 2 2 1 1 1 0 -1 -1 -2 -2 -3 -6 -10 -11 -11 -9 -8 -8 -8 -8 -9 -9 -8 -7 -7 -7 -7 -7 -7 -7 -7 -7
-0 -2 -1 -1 -0 -1 -2 -2 -4 -6 -5 -6 -6 1 2 2 2 2 2 1 1 1 -0 -2 -4 -9 -10 -11 -11 -11 -11 -10 -8 -7 -7 -7 -8 -9 -9 -9 -8 -7 -7 -7 -7 -7 -6 -6 -6
-4 -3 -3 -3 -2 1 -2 -2 -3 -4 -4 -4 -2 0 2 2 2 2 2 1 1 1 -0 -2 -7 -11 -12 -12 -11 -11 -10 -8 -7 -7 -7 -7 -9 -11 -12 -12 -11 -11 -11 -12 -13 -11 -7 -6 -6
-6 -2 0 1 1 -1 -3 -2 -3 -4 0 1 1 1 1 2 2 2 2 1 1 1 -1 -5 -9 -11 -11 -11 -10 -9 -8 -7 -7 -7 -7 -9 -12 -14 -17 -18 -19 -21 -23 -23 -23 -19 -12 -9 -7
-4 -4 1 3 1 -1 -3 -1 -4 3 3 2 2 2 2 2 2 2 2 1 1 1 -2 -5 -8 -9 -10 -9 -9 -9 -8 -7 -6 -7 -9 -12 -15 -19 -22 -25 -28 -30 -30 -29 -29 -29 -20 -17 -10
-3 -2 -5 -1 -0 -0 -3 -3 -0 4 3 2 2 3 3 2 2 2 2 2 1 0 -1 -4 -6 -7 -8 -8 -7 -7 -6 -6 -7 -8 -11 -14 -18 -22 -27 -30 -32 -32 -32 -32 -32 -30 -29 -23 -18
-6 -6 -2 1 -0 0 -3 -2 -1 4 3 3 2 2 3 2 2 2 2 2 1 0 -1 -2 -4 -5 -5 -6 -6 -6 -5 -6 -7 -10 -15 -19 -21 -24 -29 -32 -33 -34 -33 -33 -33 -32 -31 -29 -25
-4 -6 -3 -1 1 -2 -2 -3 -1 1 3 3 2 2 2 2 2 2 2 2 1 1 -0 -1 -3 -2 -3 -4 -4 -5 -5 -7 -8 -8 -17 -19 -23 -27 -31 -33 -34 -34 -34 -34 -33 -33 -33 -34 -32
-2 -0 -0 2 -1 2 1 -0 -3 -3 1 -2 -2 3 1 1 2 2 2 2 1 1 0 -1 -2 -1 -2 -3 -3 -4 -4 -3 -9 -15 -18 -21 -25 -29 -32 -34 -34 -33 -33 -33 -34 -34 -33 -32 -32

GFSSGP_850_dewp_159.txt.gz
Dewpoint
-6 0 -1 -1 -2 -5 -9 -10 -8 -4 1 4 1 2 8 12 13 14 14 14 13 15 9 9 9 9 8 8 8 7 2 0 -0 3 6 9 10 10 9 9 8 8 8 7 7 7 7 7 7
-5 -1 -2 -3 -4 -8 -9 -9 -5 -4 4 5 6 7 5 13 14 14 14 14 14 15 14 10 9 10 9 9 8 8 6 3 2 2 3 5 6 6 7 7 8 8 7 7 8 8 8 7 7
-6 -2 -4 -4 -6 -7 -10 -7 -8 1 6 5 6 7 9 14 15 15 15 14 14 14 15 9 9 10 10 9 9 8 8 7 4 4 4 4 4 4 4 5 5 6 6 7 7 8 8 8 8
-5 -4 -5 -6 -10 -10 -7 -8 -7 3 4 5 4 9 15 16 16 15 15 15 14 15 15 10 9 10 9 9 9 9 9 9 8 7 6 6 6 6 6 6 6 6 6 6 6 7 7 6 6
-7 -7 -6 -7 -7 -10 -6 -8 -5 2 1 3 4 10 14 16 16 15 15 15 15 15 14 9 9 9 9 9 9 9 9 9 9 9 9 9 9 8 8 8 8 8 8 9 9 9 9 8 7
-9 -8 -6 -7 -11 -10 -6 -7 -4 -0 2 3 3 8 14 15 16 15 15 15 15 15 14 9 10 10 10 9 10 10 10 10 10 10 10 10 10 10 10 10 10 10 10 10 10 10 10 10 10
-9 -10 -7 -8 -10 -10 -6 -6 -5 1 3 3 3 7 14 15 15 15 15 15 15 15 15 13 10 10 10 9 9 10 10 10 10 10 11 11 11 11 11 11 11 12 12 12 12 12 11 12 11
-9 -10 -9 -11 -9 -11 -7 -4 -4 -0 1 3 5 6 11 14 14 14 15 15 16 15 15 13 11 11 11 11 11 11 11 12 12 12 12 13 13 13 13 12 12 12 12 12 12 12 12 12 12
-9 -9 -10 -12 -11 -10 -6 -6 -4 -1 2 5 6 7 11 14 14 14 15 15 16 16 15 12 12 11 11 11 11 12 12 13 13 13 14 13 14 14 13 12 12 13 13 13 13 13 13 12 12
-9 -10 -12 -11 -10 -9 -7 -7 -6 -1 2 4 6 11 14 14 14 14 14 14 14 15 14 12 12 11 10 9 10 11 12 12 13 13 14 13 14 13 12 12 11 11 11 12 11 11 11 12 13
-9 -9 -12 -11 -11 -11 -10 -8 -7 -2 -1 1 5 10 13 14 13 13 12 11 12 13 14 11 10 10 10 10 10 8 7 6 9 12 13 13 12 11 11 11 11 11 11 11 11 11 12 11 10
-8 -10 -10 -10 -11 -11 -11 -10 -7 -4 -3 -2 0 7 11 13 13 12 11 10 11 12 13 14 12 12 11 8 10 4 1 1 1 5 10 11 11 10 10 10 9 8 7 7 8 9 9 8 8
-8 -9 -10 -9 -10 -9 -10 -9 -8 -6 -3 -1 0 7 10 11 12 11 10 10 10 11 11 12 11 7 2 5 -1 -3 -2 1 -1 0 3 6 7 7 7 6 5 3 3 3 3 3 3 3 3
-9 -7 -9 -9 -10 -9 -8 -9 -9 -8 -6 -3 -3 5 8 10 10 10 10 9 9 9 10 9 5 -0 -1 -1 -4 -5 -4 -1 -1 -1 -0 2 2 1 0 0 -1 -3 -8 -10 -10 -10 -10 -8 -6
-8 -9 -11 -11 -11 -10 -10 -8 -9 -10 -8 -5 -1 2 5 8 8 9 9 8 8 8 9 7 1 -2 -3 -4 -3 -4 -3 -2 -2 -2 -2 -2 -2 -3 -9 -12 -14 -15 -15 -15 -15 -15 -13 -13 -9
-7 -7 -6 -10 -14 -13 -11 -7 -10 -11 -9 -7 -3 -2 -0 4 6 7 8 7 7 7 9 7 3 -1 -0 -2 -3 -3 -3 -2 -2 -3 -3 -5 -12 -14 -14 -13 -13 -12 -10 -9 -11 -10 -11 -11 -10
-4 -3 -4 -7 -11 -11 -9 -8 -12 -12 -10 -10 -7 -5 -3 2 5 7 7 6 6 7 8 7 3 2 1 -1 -2 -3 -2 -2 -2 -4 -11 -14 -13 -13 -12 -11 -10 -10 -10 -10 -12 -9 -6 -6 -2
-0 -2 -3 -4 -7 -10 -9 -8 -10 -11 -10 -8 -7 -8 -5 -0 4 6 7 6 5 6 8 7 5 2 1 -1 -1 -2 -3 -3 -6 -13 -13 -13 -12 -11 -9 -8 -9 -10 -11 -11 -12 -12 -8 -2 -3
-2 -2 -2 -5 -7 -8 -7 -6 -8 -10 -10 -9 -8 -8 -7 -2 3 6 6 5 5 5 7 7 6 3 1 1 2 1 -0 -3 -11 -13 -12 -12 -11 -9 -8 -8 -10 -11 -11 -11 -11 -10 -6 0 -4
-1 -0 -0 -2 -4 -4 -5 -5 -6 -7 -8 -9 -7 -7 -6 -3 2 6 6 4 4 5 7 6 6 4 4 3 2 1 -1 -2 -7 -12 -11 -10 -9 -8 -7 -9 -10 -11 -10 -11 -10 -9 -7 -0 -1
-0 1 1 0 -2 -3 -3 -3 -4 -6 -7 -8 -9 -8 -7 -4 1 5 5 4 4 5 6 6 6 5 4 3 2 0 -2 -10 -9 -8 -9 -9 -8 -7 -7 -9 -11 -11 -9 -8 -9 -10 -9 -2 -1
2 -1 -1 -0 -1 1 -3 1 -3 -5 -6 -6 -8 -7 -7 -5 -0 3 4 4 4 4 5 5 5 4 4 2 1 -1 -3 -3 -3 -2 -7 -8 -7 -7 -8 -10 -11 -12 -12 -11 -11 -13 -13 -11 -2
2 -0 -0 -0 0 1 -0 0 -1 -5 -5 -6 -8 -8 -7 -6 -2 2 4 4 4 4 5 4 4 4 3 0 2 1 -3 -2 -2 -2 -5 -6 -7 -7 -9 -11 -13 -15 -16 -17 -19 -21 -21 -8 -3
-1 -0 -0 -0 1 4 1 1 0 -2 -3 -5 -7 -7 -6 -5 -3 0 3 3 3 3 4 4 4 3 3 3 2 1 -1 -1 -2 -1 -2 -4 -6 -7 -9 -12 -14 -17 -20 -23 -23 -23 -23 -20 -9
-1 1 5 5 4 5 -1 -0 -0 -4 -4 -4 -4 -5 -4 -3 -1 0 3 3 3 3 3 3 3 3 3 2 1 0 0 -1 -1 -1 -2 -4 -6 -8 -11 -13 -15 -18 -21 -25 -27 -25 -24 -21 -14
-0 1 4 6 5 3 -0 1 -1 -2 -3 -2 -1 -1 -1 1 1 2 2 3 3 3 3 2 2 1 1 1 0 0 -1 -1 -2 -4 -6 -6 -8 -11 -12 -14 -17 -20 -23 -26 -28 -20 -21 -18 -10
-0 2 -1 2 2 5 3 0 -2 -1 0 0 2 1 1 1 2 2 2 3 2 2 2 2 0 -0 -0 -0 -1 -1 -2 -6 -7 -7 -7 -8 -9 -11 -13 -16 -18 -23 -27 -30 -30 -20 -15 -9 -9
-2 -4 2 3 7 5 2 1 1 1 0 2 1 2 2 2 2 3 2 2 2 2 2 1 0 -1 -1 -1 -2 -6 -7 -7 -7 -7 -7 -7 -10 -11 -16 -17 -22 -27 -30 -31 -27 -13 -18 -12 -10
-6 -2 -3 -1 4 4 3 1 1 3 2 1 0 0 0 2 3 3 2 2 2 2 2 1 1 -1 -1 -3 -5 -7 -7 -6 -6 -6 -6 -8 -8 -16 -17 -21 -26 -28 -25 -26 -21 -21 -17 -10 -9
-5 -3 -4 3 -0 -0 2 2 0 -0 -1 -1 -1 -1 -2 -2 -1 2 3 2 2 2 2 1 0 -1 -2 -6 -7 -6 -5 -5 -6 -6 -4 -8 -14 -17 -19 -24 -26 -20 -25 -26 -20 -16 -13 -11 -10

GFSSGP_850_dewp_162.txt.gz
Dewpoint
-15 -1 -1 -1 -0 -1 -2 -7 -11 -6 -3 1 -1 7 12 13 14 16 11 11 13 7 6 8 8 7 7 7 5 2 -1 -3 2 8 9 9 9 7 6 6 6 7 7 7 7 8 7 7 6
-16 -3 -2 -3 0 -2 -8 -9 -7 -8 2 2 2 4 11 14 13 13 14 14 15 6 8 9 8 8 8 8 7 5 2 0 1 2 4 6 5 4 4 4 5 5 6 7 7 7 7 6 6
-14 -3 -3 -3 -1 -3 -6 -8 -8 4 4 3 2 7 12 13 14 14 14 14 15 14 10 8 8 9 9 8 8 7 5 3 2 2 3 3 3 3 3 4 5 5 5 6 6 7 7 7 6
-5 -6 -4 -3 -5 -8 -10 -9 -9 -1 2 2 3 14 16 16 15 14 14 13 13 15 12 9 8 10 9 8 9 8 8 6 5 4 4 5 5 5 5 5 5 5 5 5 5 5 5 6 5
-8 -8 -5 -4 -6 -8 -10 -8 -9 -7 2 1 2 12 15 16 15 15 14 13 14 15 12 9 8 9 9 9 9 9 8 8 8 8 8 7 7 7 7 7 7 8 8 8 8 8 8 8 8
-9 -9 -5 -5 -9 -12 -10 -8 -8 -7 -1 0 1 12 15 16 15 14 14 15 15 15 10 9 8 9 9 9 9 9 9 9 9 10 10 10 10 10 10 10 10 10 10 10 10 10 10 10 10
-7 -9 -8 -9 -10 -10 -12 -7 -7 -7 -3 1 2 11 15 15 15 15 15 15 15 14 10 9 9 9 9 9 9 9 9 9 9 10 10 10 11 11 11 11 12 12 12 12 12 12 12 12 12
-8 -9 -8 -10 -10 -11 -8 -7 -7 -7 -2 1 2 10 14 15 15 15 15 15 15 15 14 9 9 9 9 9 9 10 10 10 11 11 11 12 12 12 12 12 12 12 12 12 12 12 12 12 12
-8 -7 -8 -11 -12 -9 -7 -6 -7 -7 -2 1 4 8 11 15 15 15 15 15 15 15 15 13 10 10 10 11 11 11 12 12 12 13 13 13 14 13 13 12 12 11 11 12 12 12 12 11 11
-8 -7 -10 -13 -11 -10 -10 -7 -8 -7 -4 4 8 13 14 14 14 14 15 15 15 15 15 16 13 12 11 11 11 12 13 13 13 13 13 13 13 13 12 12 11 10 10 10 11 11 11 12 12
-10 -7 -9 -11 -11 -11 -11 -11 -10 -8 -4 0 5 14 14 13 14 14 14 15 15 15 16 16 15 14 12 10 11 12 12 11 12 13 13 13 13 12 12 11 10 9 10 10 10 11 11 11 11
-10 -11 -10 -11 -11 -11 -11 -12 -12 -10 -5 -4 3 9 14 13 13 13 13 13 13 15 14 16 15 14 13 11 12 11 7 2 1 9 12 12 12 11 11 10 9 8 8 6 5 5 6 6 6
-10 -11 -10 -10 -10 -10 -10 -10 -11 -9 -6 -5 -1 10 12 13 13 12 11 11 12 13 14 13 14 14 13 11 10 6 5 2 -1 2 8 8 8 8 8 7 6 3 1 -0 -1 -2 -2 -3 -2
-10 -10 -9 -8 -9 -10 -9 -9 -10 -10 -9 -6 -0 9 11 12 12 11 10 10 11 12 14 14 14 13 11 9 5 0 -2 -3 -6 -5 -2 1 1 1 1 0 -2 -6 -12 -14 -14 -14 -14 -14 -14
-7 -7 -8 -10 -11 -10 -10 -8 -7 -10 -10 -8 -4 -1 8 10 10 10 10 10 10 11 12 12 11 9 6 4 0 -3 -4 -5 -6 -4 -2 -1 -2 -2 -5 -11 -13 -14 -14 -13 -12 -12 -12 -12 -13
-6 -5 -4 -7 -10 -11 -11 -7 -10 -10 -11 -9 -7 -4 1 7 9 8 9 10 9 9 10 10 9 6 3 0 -2 -3 -3 -4 -5 -5 -4 -4 -8 -12 -13 -13 -12 -11 -10 -10 -11 -12 -13 -13 -13
-2 -1 -3 -4 -8 -12 -11 -9 -10 -11 -11 -10 -8 -6 -2 1 6 6 8 9 8 9 9 9 8 5 4 3 1 -2 -2 -3 -4 -5 -6 -11 -13 -13 -13 -12 -10 -9 -10 -11 -12 -13 -13 -13 -11
0 -0 -1 -2 -5 -9 -8 -8 -9 -9 -10 -10 -10 -8 -5 -3 0 4 8 8 7 8 9 8 7 7 4 1 -0 -1 -2 -3 -3 -5 -11 -13 -12 -12 -10 -9 -9 -9 -10 -12 -13 -14 -13 -5 -11
-1 -1 -1 -2 -4 -4 -5 -7 -8 -9 -9 -10 -9 -8 -7 -7 -4 3 7 7 6 7 8 8 7 6 4 1 -0 -1 -3 -3 -5 -10 -13 -12 -11 -9 -8 -8 -9 -9 -10 -12 -13 -13 -11 -5 -12
-1 0 0 -2 -3 -2 -2 -3 -5 -7 -7 -8 -9 -9 -8 -8 -5 4 7 7 6 6 8 7 7 6 4 2 1 -0 -1 -2 -6 -12 -12 -11 -10 -8 -8 -8 -8 -10 -10 -11 -12 -12 -11 -3 -8
0 1 1 1 -1 -2 -1 -0 -2 -5 -6 -7 -7 -8 -8 -7 -6 6 7 6 5 5 7 7 7 5 4 3 3 2 -0 -1 -5 -10 -10 -10 -9 -8 -7 -7 -8 -9 -11 -11 -12 -12 -13 -9 -4
3 0 0 0 1 3 -1 2 -1 -3 -4 -5 -5 -6 -8 -7 -6 6 7 6 5 5 7 7 6 6 4 3 3 2 -1 -4 -6 -6 -9 -9 -8 -7 -7 -7 -9 -11 -12 -13 -14 -15 -16 -16 -11
3 1 2 2 3 3 2 2 0 -2 -2 -4 -5 -5 -6 -7 -7 5 6 5 5 5 5 6 6 6 5 4 2 1 -3 -2 -2 -4 -6 -8 -7 -7 -7 -8 -10 -12 -14 -15 -17 -18 -20 -20 -17
-0 1 2 2 2 6 2 2 1 -1 -2 -4 -5 -6 -7 -6 -6 4 5 5 5 5 5 6 5 5 4 4 2 0 -1 -2 -2 -4 -6 -6 -7 -6 -8 -9 -11 -12 -14 -16 -18 -20 -21 -21 -19
-0 2 6 6 6 7 1 2 1 -2 -3 -3 -3 -4 -3 -2 -2 4 4 4 4 4 4 5 5 4 4 3 3 1 -0 -1 -2 -3 -1 -3 -5 -6 -8 -9 -11 -12 -14 -18 -20 -21 -21 -19 -18
1 1 6 8 7 5 2 4 2 1 -0 1 -0 -1 0 1 1 4 4 4 4 4 4 4 4 4 3 3 3 2 0 -1 -1 -0 -1 -4 -6 -7 -9 -10 -11 -14 -16 -20 -23 -22 -20 -19 -17
1 2 -0 4 4 6 4 1 3 2 1 1 1 2 2 2 2 2 4 4 3 3 3 4 4 3 3 3 1 1 0 -0 -1 -2 -4 -6 -7 -9 -9 -11 -12 -15 -19 -24 -24 -22 -22 -17 -18
-1 -2 3 7 10 7 3 1 5 2 2 2 2 2 2 3 2 3 3 3 3 3 3 3 2 2 1 1 1 -0 -1 -2 -5 -6 -6 -7 -7 -8 -10 -12 -13 -19 -23 -25 -24 -21 -22 -19 -15
-5 -1 -0 0 7 8 7 3 3 3 3 2 0 -1 -1 1 3 3 3 3 3 2 2 2 1 0 0 0 -0 -1 -1 -4 -6 -6 -2 -7 -8 -10 -9 -10 -16 -20 -22 -25 -22 -21 -18 -13 -13
-3 -3 -3 3 4 3 7 7 1 -0 -0 0 0 -0 -1 -2 -1 2 3 3 3 3 2 2 1 0 -0 -0 -0 -2 -5 -6 -5 -3 -6 -6 -8 -11 -11 -14 -18 -22 -24 -23 -22 -19 -19 -19 -18

GFSSGP_850_dewp_165.txt.gz
Dewpoint
-13 -8 -1 1 0 1 1 -2 -5 -5 1 8 11 13 13 13 13 15 13 12 12 7 4 4 3 4 3 1 -2 -4 -5 -1 5 7 8 7 5 1 1 3 4 4 5 5 6 6 6 6 6
-14 -5 -1 -1 1 3 1 -4 0 3 3 6 12 12 13 14 13 14 13 12 12 4 4 4 5 6 5 4 1 -1 -2 -3 -2 2 3 4 3 0 0 2 3 3 4 5 5 6 6 6 5
-10 -5 -2 -1 0 1 -1 -7 3 4 3 2 11 13 14 14 13 14 13 13 10 2 5 6 6 7 7 5 4 3 1 0 0 1 1 1 2 2 2 2 2 3 3 3 4 5 5 5 5
-5 -5 -3 -2 -2 -4 -6 -8 -1 3 3 2 11 16 16 15 14 14 14 14 11 4 7 7 7 8 7 6 6 5 4 3 2 3 3 3 4 4 4 5 5 5 5 4 5 5 4 4 5
-3 -5 -4 -2 -2 -4 -7 -9 -8 -6 2 2 11 15 16 15 14 14 14 14 9 6 8 8 8 8 8 7 7 7 7 6 6 5 5 5 6 6 6 7 7 7 7 7 8 8 8 9 9
-5 -8 -4 -4 -5 -7 -10 -9 -8 -8 1 1 13 15 15 15 14 13 13 14 14 13 9 8 9 9 8 7 8 8 8 8 8 8 8 8 8 9 9 9 9 9 9 10 10 10 10 11 11
-5 -5 -5 -6 -8 -9 -11 -10 -7 -8 -7 0 12 15 15 15 14 14 14 14 14 14 12 9 9 9 8 8 8 8 8 8 8 9 9 10 10 10 11 11 11 11 12 12 12 12 12 12 12
-7 -6 -5 -7 -7 -9 -9 -7 -7 -7 -7 1 10 15 16 15 14 14 14 15 15 14 10 9 9 9 9 8 9 9 9 9 9 10 10 11 11 12 12 12 12 12 12 12 13 13 13 13 13
-11 -5 -4 -6 -8 -10 -10 -7 -7 -7 -7 9 10 11 13 15 15 15 15 15 15 14 10 9 9 9 9 9 9 10 10 10 11 11 12 12 13 13 13 13 12 12 12 12 12 12 12 11 11
-10 -5 -5 -8 -10 -9 -11 -11 -10 -9 -7 13 14 12 15 15 15 15 15 15 14 14 13 11 10 10 10 10 10 11 11 12 12 13 14 13 13 12 12 12 12 11 11 10 10 11 11 11 12
-9 -8 -7 -8 -9 -10 -11 -11 -11 -11 -7 9 14 15 15 15 15 15 14 14 15 14 15 15 11 11 11 11 12 12 12 11 12 13 13 12 12 12 11 11 9 8 8 8 8 9 10 10 10
-8 -10 -10 -11 -10 -10 -10 -11 -10 -10 -9 -4 9 7 14 14 15 15 15 14 14 15 15 14 14 14 11 11 11 11 11 10 10 12 12 12 12 11 11 10 9 8 6 5 2 2 2 3 3
-6 -8 -9 -9 -9 -9 -10 -10 -9 -9 -10 -9 9 12 13 14 14 14 15 15 14 14 14 14 14 14 14 12 11 9 3 -0 0 8 9 10 9 7 9 9 7 3 -1 -3 -5 -7 -8 -9 -9
-7 -7 -7 -8 -9 -9 -7 -9 -9 -9 -10 -10 10 12 12 13 14 14 14 15 14 14 13 14 14 13 13 11 11 8 0 -6 -4 0 4 6 5 4 3 1 -1 -4 -10 -13 -14 -15 -14 -15 -14
-4 -5 -6 -6 -8 -8 -9 -8 -7 -9 -9 -10 7 11 11 11 13 13 13 13 13 13 13 13 13 13 13 11 10 6 -1 -4 -5 -5 -3 1 -0 -1 -2 -4 -11 -13 -14 -13 -12 -12 -12 -13 -13
-2 -3 -3 -5 -6 -7 -9 -7 -8 -10 -10 -9 -7 11 10 11 13 12 12 11 13 13 13 12 13 13 13 11 9 3 -2 -4 -6 -5 -4 -3 -3 -4 -8 -13 -13 -12 -11 -11 -11 -12 -13 -13 -14
-1 -0 -2 -3 -5 -6 -8 -7 -9 -10 -10 -9 -10 -3 10 11 11 11 11 11 12 12 13 13 13 13 11 8 5 1 -2 -4 -5 -6 -5 -5 -8 -12 -12 -12 -10 -10 -10 -11 -11 -12 -13 -14 -15
2 1 -0 -1 -3 -6 -10 -9 -10 -11 -10 -9 -10 -10 -4 8 8 9 10 10 11 10 10 10 10 10 8 7 4 2 -0 -3 -5 -5 -7 -10 -12 -13 -12 -10 -10 -9 -10 -10 -11 -12 -13 -13 -15
1 1 1 -1 -3 -2 -2 -4 -7 -9 -9 -9 -9 -9 -6 -2 6 7 9 10 10 9 9 9 9 8 6 6 4 2 -0 -2 -4 -5 -9 -12 -12 -12 -11 -9 -9 -9 -9 -10 -11 -12 -13 -14 -15
1 2 2 -0 -1 -1 -1 -1 -3 -5 -8 -9 -8 -10 -9 -5 -2 7 9 9 9 9 9 8 8 7 6 5 4 1 -1 -2 -3 -7 -11 -12 -11 -11 -9 -8 -8 -8 -8 -9 -10 -12 -13 -14 -15
0 1 1 2 0 -1 -1 0 -1 -3 -4 -7 -8 -7 -10 -9 -7 5 8 8 8 8 8 8 8 7 6 4 2 1 -0 -1 -3 -9 -11 -11 -10 -9 -8 -8 -8 -8 -8 -9 -10 -12 -13 -14 -14
2 -0 2 2 3 4 1 6 1 -2 -2 -3 -5 -6 -8 -10 -9 3 7 7 7 7 7 7 7 7 6 3 3 2 0 -1 -3 -8 -9 -9 -8 -8 -7 -7 -7 -8 -8 -9 -11 -13 -14 -16 -17
4 2 3 3 4 4 3 4 2 -1 -1 -3 -3 -4 -6 -8 -8 4 7 6 6 6 7 7 7 7 5 4 4 3 1 -1 -4 -6 -6 -8 -8 -7 -7 -7 -7 -7 -8 -9 -12 -14 -16 -18 -18
1 1 2 3 4 7 4 3 2 1 1 2 0 1 1 -6 2 7 6 6 6 6 6 6 7 6 4 5 3 3 1 -2 -2 -2 -3 -7 -7 -7 -7 -7 -7 -8 -8 -10 -12 -15 -17 -18 -20
1 2 6 7 8 8 3 4 2 3 3 2 2 2 4 5 7 6 5 5 5 5 6 6 6 6 5 5 4 3 -0 -0 -1 -2 -3 -6 -7 -7 -7 -7 -8 -9 -10 -12 -14 -15 -18 -20 -21
3 2 7 10 8 6 3 6 4 3 2 2 3 3 3 5 5 5 5 5 5 5 5 5 6 5 5 4 3 3 2 0 -1 -2 -3 -6 -6 -6 -7 -7 -8 -10 -13 -15 -16 -18 -21 -21 -22
4 5 1 4 4 6 5 4 3 3 3 3 3 3 2 3 4 4 4 4 4 5 5 5 5 5 4 4 3 3 1 -0 -1 -1 -3 -4 -5 -6 -7 -8 -9 -11 -15 -19 -18 -19 -21 -17 -17
-0 -1 7 8 11 10 6 4 7 5 4 3 3 2 2 3 4 5 4 4 4 4 4 4 4 4 4 3 3 3 1 -0 -0 -1 -2 -2 -5 -8 -9 -9 -11 -13 -17 -20 -20 -20 -19 -21 -19
-3 -1 1 6 9 10 10 7 3 4 4 2 -0 -1 -1 1 3 3 4 4 3 3 3 3 3 3 3 2 2 2 1 0 -0 -0 -2 -4 -8 -7 -9 -9 -13 -16 -19 -21 -19 -20 -20 -22 -22
-1 2 3 5 6 6 6 7 1 1 1 1 0 -0 -1 -1 -2 2 3 3 3 3 3 3 2 2 1 1 1 1 0 -0 -1 -4 -6 -4 -2 -5 -7 -11 -14 -16 -18 -20 -20 -20 -20 -25 -24